Time,TemperatureF,DewpointF,PressureIn,WindDirection,WindDirectionDegrees,WindSpeedMPH,WindSpeedGustMPH,Humidity,HourlyPrecipIn,Conditions,Clouds,dailyrainin,SoftwareType,DateUTC
2013-06-24 00:00:00,81.8,73.1,30.11,East,89,2.0,3.0,75,0.00,,,0.40,Wunderground v.1.15,2013-06-24 04:00:00,
2013-06-24 00:01:00,81.8,73.1,30.11,ENE,63,3.0,4.0,75,0.00,,,0.40,Wunderground v.1.15,2013-06-24 04:01:00,
2013-06-24 00:02:00,81.8,73.1,30.11,East,79,3.0,4.0,75,0.00,,,0.40,Wunderground v.1.15,2013-06-24 04:02:00,
2013-06-24 00:03:00,81.8,73.1,30.11,East,89,3.0,4.0,75,0.00,,,0.40,Wunderground v.1.15,2013-06-24 04:03:00,
2013-06-24 00:05:00,81.8,73.1,30.10,ESE,123,3.0,5.0,75,0.00,,,0.40,Wunderground v.1.15,2013-06-24 04:05:00,
2013-06-24 00:07:00,81.9,73.2,30.11,SE,133,3.0,5.0,75,0.00,,,0.00,Wunderground v.1.15,2013-06-24 04:07:00,
2013-06-24 00:10:00,81.9,73.2,30.11,East,79,3.0,3.0,75,0.00,,,0.00,Wunderground v.1.15,2013-06-24 04:10:00,
2013-06-24 00:11:00,81.8,73.1,30.11,East,79,3.0,3.0,75,0.00,,,0.00,Wunderground v.1.15,2013-06-24 04:11:00,
2013-06-24 00:12:00,81.8,73.1,30.11,SSE,162,3.0,3.0,75,0.00,,,0.00,Wunderground v.1.15,2013-06-24 04:12:00,
2013-06-24 00:13:00,81.8,73.1,30.11,East,85,3.0,3.0,75,0.00,,,0.00,Wunderground v.1.15,2013-06-24 04:13:00,
2013-06-24 00:14:00,81.8,73.1,30.11,SSE,158,3.0,3.0,75,0.00,,,0.00,Wunderground v.1.15,2013-06-24 04:14:00,
2013-06-24 00:16:00,81.8,73.1,30.11,East,95,3.0,4.0,75,0.00,,,0.00,Wunderground v.1.15,2013-06-24 04:16:00,
2013-06-24 00:20:00,81.8,73.1,30.11,East,95,3.0,3.0,75,0.00,,,0.00,Wunderground v.1.15,2013-06-24 04:20:00,
2013-06-24 00:22:00,81.7,73.0,30.11,SE,139,3.0,3.0,75,0.00,,,0.00,Wunderground v.1.15,2013-06-24 04:22:00,
2013-06-24 00:25:00,81.7,73.0,30.11,East,94,2.0,4.0,75,0.00,,,0.00,Wunderground v.1.15,2013-06-24 04:25:00,
2013-06-24 00:26:00,81.7,73.0,30.11,SE,127,2.0,4.0,75,0.00,,,0.00,Wunderground v.1.15,2013-06-24 04:26:00,
2013-06-24 00:28:00,81.6,72.9,30.11,ESE,102,2.0,5.0,75,0.00,,,0.00,Wunderground v.1.15,2013-06-24 04:28:00,
2013-06-24 00:29:00,81.6,72.9,30.11,East,96,2.0,5.0,75,0.00,,,0.00,Wunderground v.1.15,2013-06-24 04:29:00,
2013-06-24 00:31:00,81.6,72.9,30.11,East,90,2.0,9.0,75,0.00,,,0.00,Wunderground v.1.15,2013-06-24 04:31:00,
2013-06-24 00:34:00,81.6,72.9,30.11,ENE,78,2.0,9.0,75,0.00,,,0.00,Wunderground v.1.15,2013-06-24 04:34:00,
2013-06-24 00:36:00,81.6,72.9,30.11,ESE,109,2.0,9.0,75,0.00,,,0.00,Wunderground v.1.15,2013-06-24 04:36:00,
2013-06-24 00:37:00,81.5,72.8,30.11,ENE,66,2.0,9.0,75,0.00,,,0.00,Wunderground v.1.15,2013-06-24 04:37:00,
2013-06-24 00:38:00,81.6,72.9,30.11,ENE,60,2.0,9.0,75,0.00,,,0.00,Wunderground v.1.15,2013-06-24 04:38:00,
2013-06-24 00:40:00,81.5,72.8,30.11,SSE,167,2.0,2.0,75,0.00,,,0.00,Wunderground v.1.15,2013-06-24 04:40:00,
2013-06-24 00:45:00,81.5,72.8,30.11,SE,130,2.0,9.0,75,0.00,,,0.00,Wunderground v.1.15,2013-06-24 04:45:00,
2013-06-24 00:46:00,81.5,72.8,30.11,East,91,2.0,9.0,75,0.00,,,0.00,Wunderground v.1.15,2013-06-24 04:46:00,
2013-06-24 00:47:00,81.5,72.8,30.11,East,88,2.0,9.0,75,0.00,,,0.00,Wunderground v.1.15,2013-06-24 04:47:00,
2013-06-24 00:48:00,81.5,72.8,30.11,NE,56,2.0,9.0,75,0.00,,,0.00,Wunderground v.1.15,2013-06-24 04:48:00,
2013-06-24 00:50:00,81.5,72.8,30.11,East,89,2.0,2.0,75,0.00,,,0.00,Wunderground v.1.15,2013-06-24 04:50:00,
2013-06-24 00:52:00,81.5,72.8,30.11,ENE,74,2.0,9.0,75,0.00,,,0.00,Wunderground v.1.15,2013-06-24 04:52:00,
2013-06-24 00:55:00,81.5,72.8,30.11,ENE,65,2.0,9.0,75,0.00,,,0.00,Wunderground v.1.15,2013-06-24 04:55:00,
2013-06-24 00:56:00,81.5,72.8,30.11,ESE,102,2.0,9.0,75,0.00,,,0.00,Wunderground v.1.15,2013-06-24 04:56:00,
2013-06-24 00:57:00,81.5,72.8,30.11,East,85,2.0,9.0,75,0.00,,,0.00,Wunderground v.1.15,2013-06-24 04:57:00,
2013-06-24 00:58:00,81.5,72.8,30.11,East,94,2.0,9.0,75,0.00,,,0.00,Wunderground v.1.15,2013-06-24 04:58:00,
2013-06-24 01:00:00,81.5,73.2,30.11,East,93,2.0,2.0,76,0.00,,,0.00,Wunderground v.1.15,2013-06-24 05:00:00,
2013-06-24 01:04:00,81.6,73.3,30.11,SSE,158,3.0,5.0,76,0.00,,,0.00,Wunderground v.1.15,2013-06-24 05:04:00,
2013-06-24 01:05:00,81.6,73.3,30.11,ENE,63,3.0,5.0,76,0.00,,,0.00,Wunderground v.1.15,2013-06-24 05:05:00,
2013-06-24 01:06:00,81.6,73.3,30.11,SSE,162,3.0,5.0,76,0.00,,,0.00,Wunderground v.1.15,2013-06-24 05:06:00,
2013-06-24 01:07:00,81.6,73.3,30.11,SE,142,3.0,5.0,76,0.00,,,0.00,Wunderground v.1.15,2013-06-24 05:07:00,
2013-06-24 01:08:00,81.6,73.3,30.11,SE,144,4.0,5.0,76,0.00,,,0.00,Wunderground v.1.15,2013-06-24 05:08:00,
2013-06-24 01:12:00,81.7,73.0,30.11,SSE,155,4.0,4.0,75,0.00,,,0.00,Wunderground v.1.15,2013-06-24 05:12:00,
2013-06-24 01:13:00,81.7,73.0,30.11,ENE,76,4.0,4.0,75,0.00,,,0.00,Wunderground v.1.15,2013-06-24 05:13:00,
2013-06-24 01:14:00,81.7,73.0,30.11,NE,53,4.0,5.0,75,0.00,,,0.00,Wunderground v.1.15,2013-06-24 05:14:00,
2013-06-24 01:16:00,81.7,73.0,30.11,SSE,155,4.0,5.0,75,0.00,,,0.00,Wunderground v.1.15,2013-06-24 05:16:00,
2013-06-24 01:18:00,81.6,72.9,30.10,ENE,61,3.0,5.0,75,0.00,,,0.00,Wunderground v.1.15,2013-06-24 05:18:00,
2013-06-24 01:19:00,81.6,72.9,30.10,ENE,78,3.0,5.0,75,0.00,,,0.00,Wunderground v.1.15,2013-06-24 05:19:00,
2013-06-24 01:21:00,81.6,72.9,30.10,East,79,3.0,6.0,75,0.00,,,0.00,Wunderground v.1.15,2013-06-24 05:21:00,
2013-06-24 01:24:00,81.6,73.3,30.10,ENE,64,3.0,6.0,76,0.00,,,0.00,Wunderground v.1.15,2013-06-24 05:24:00,
2013-06-24 01:25:00,81.6,73.3,30.10,ENE,77,3.0,6.0,76,0.00,,,0.00,Wunderground v.1.15,2013-06-24 05:25:00,
2013-06-24 01:26:00,81.6,73.3,30.11,ESE,103,3.0,6.0,76,0.00,,,0.00,Wunderground v.1.15,2013-06-24 05:26:00,
2013-06-24 01:29:00,81.4,68.9,30.10,SSE,153,4.0,8.0,66,0.00,,,0.00,Wunderground v.1.15,2013-06-24 05:29:00,
2013-06-24 01:30:00,81.2,69.2,30.10,SE,133,5.0,5.0,67,0.00,,,0.00,Wunderground v.1.15,2013-06-24 05:30:00,
2013-06-24 01:32:00,81.1,70.4,30.10,SE,146,5.0,7.0,70,0.00,,,0.00,Wunderground v.1.15,2013-06-24 05:32:00,
2013-06-24 01:36:00,80.9,71.4,30.10,ENE,65,4.0,7.0,73,0.00,,,0.00,Wunderground v.1.15,2013-06-24 05:36:00,
2013-06-24 01:37:00,80.8,71.7,30.10,ENE,72,4.0,7.0,74,0.00,,,0.00,Wunderground v.1.15,2013-06-24 05:37:00,
2013-06-24 01:39:00,80.7,71.6,30.10,ESE,112,3.0,7.0,74,0.00,,,0.00,Wunderground v.1.15,2013-06-24 05:39:00,
2013-06-24 01:42:00,80.6,72.3,30.10,East,82,2.0,7.0,76,0.00,,,0.00,Wunderground v.1.15,2013-06-24 05:42:00,
2013-06-24 01:44:00,80.5,72.2,30.10,ENE,63,2.0,7.0,76,0.00,,,0.00,Wunderground v.1.15,2013-06-24 05:44:00,
2013-06-24 01:47:00,80.5,72.6,30.10,SE,133,2.0,7.0,77,0.00,,,0.00,Wunderground v.1.15,2013-06-24 05:47:00,
2013-06-24 01:48:00,80.5,72.6,30.10,SE,139,2.0,7.0,77,0.00,,,0.00,Wunderground v.1.15,2013-06-24 05:48:00,
2013-06-24 01:49:00,80.5,73.0,30.10,SE,140,2.0,7.0,78,0.00,,,0.00,Wunderground v.1.15,2013-06-24 05:49:00,
2013-06-24 01:52:00,80.6,73.1,30.10,East,86,2.0,7.0,78,0.00,,,0.00,Wunderground v.1.15,2013-06-24 05:52:00,
2013-06-24 01:53:00,80.5,73.0,30.10,East,93,2.0,7.0,78,0.00,,,0.00,Wunderground v.1.15,2013-06-24 05:53:00,
2013-06-24 01:57:00,80.6,73.1,30.10,East,79,3.0,7.0,78,0.00,,,0.00,Wunderground v.1.15,2013-06-24 05:57:00,
2013-06-24 01:59:00,80.7,73.2,30.10,ENE,61,3.0,7.0,78,0.00,,,0.00,Wunderground v.1.15,2013-06-24 05:59:00,
2013-06-24 02:01:00,80.8,73.7,30.10,ESE,113,4.0,4.0,79,0.00,,,0.00,Wunderground v.1.15,2013-06-24 06:01:00,
2013-06-24 02:02:00,80.9,73.8,30.10,SE,138,4.0,4.0,79,0.00,,,0.00,Wunderground v.1.15,2013-06-24 06:02:00,
2013-06-24 02:04:00,80.9,73.8,30.09,SE,139,4.0,4.0,79,0.00,,,0.00,Wunderground v.1.15,2013-06-24 06:04:00,
2013-06-24 02:05:00,80.9,73.8,30.09,ESE,106,3.0,4.0,79,0.00,,,0.00,Wunderground v.1.15,2013-06-24 06:05:00,
2013-06-24 02:08:00,80.9,74.1,30.09,SSE,162,3.0,4.0,80,0.00,,,0.00,Wunderground v.1.15,2013-06-24 06:08:00,
2013-06-24 02:09:00,80.9,74.1,30.09,ENE,76,3.0,5.0,80,0.00,,,0.00,Wunderground v.1.15,2013-06-24 06:09:00,
2013-06-24 02:10:00,80.9,74.1,30.09,East,93,3.0,3.0,80,0.00,,,0.00,Wunderground v.1.15,2013-06-24 06:10:00,
2013-06-24 02:13:00,80.8,74.0,30.09,SE,133,3.0,6.0,80,0.00,,,0.00,Wunderground v.1.15,2013-06-24 06:13:00,
2013-06-24 02:15:00,80.8,74.0,30.09,ESE,103,3.0,6.0,80,0.00,,,0.00,Wunderground v.1.15,2013-06-24 06:15:00,
2013-06-24 02:20:00,80.7,74.3,30.09,SE,127,4.0,5.0,81,0.00,,,0.00,Wunderground v.1.15,2013-06-24 06:20:00,
2013-06-24 02:21:00,80.7,74.3,30.09,SE,131,4.0,5.0,81,0.00,,,0.00,Wunderground v.1.15,2013-06-24 06:21:00,
2013-06-24 02:22:00,80.7,74.3,30.09,ESE,117,4.0,5.0,81,0.00,,,0.00,Wunderground v.1.15,2013-06-24 06:22:00,
2013-06-24 02:27:00,80.5,74.9,30.09,East,95,2.0,5.0,83,0.00,,,0.00,Wunderground v.1.15,2013-06-24 06:27:00,
2013-06-24 02:29:00,80.3,74.7,30.09,ESE,118,2.0,5.0,83,0.00,,,0.00,Wunderground v.1.15,2013-06-24 06:29:00,
2013-06-24 02:30:00,80.1,74.5,30.09,SE,131,2.0,2.0,83,0.00,,,0.00,Wunderground v.1.15,2013-06-24 06:30:00,
2013-06-24 02:34:00,79.8,74.5,30.09,SE,124,1.0,11.0,84,0.00,,,0.00,Wunderground v.1.15,2013-06-24 06:34:00,
2013-06-24 02:38:00,79.6,74.3,30.08,East,100,1.0,11.0,84,0.00,,,0.00,Wunderground v.1.15,2013-06-24 06:38:00,
2013-06-24 02:40:00,79.5,74.6,30.08,SSE,150,1.0,1.0,85,0.00,,,0.00,Wunderground v.1.15,2013-06-24 06:40:00,
2013-06-24 02:43:00,79.3,74.4,30.08,SE,133,1.0,11.0,85,0.00,,,0.00,Wunderground v.1.15,2013-06-24 06:43:00,
2013-06-24 02:45:00,79.2,74.3,30.08,SE,141,1.0,11.0,85,0.00,,,0.00,Wunderground v.1.15,2013-06-24 06:45:00,
2013-06-24 02:47:00,79.1,74.2,30.08,SE,124,1.0,11.0,85,0.00,,,0.00,Wunderground v.1.15,2013-06-24 06:47:00,
2013-06-24 02:50:00,79.0,74.1,30.08,SE,127,1.0,1.0,85,0.00,,,0.00,Wunderground v.1.15,2013-06-24 06:50:00,
2013-06-24 02:51:00,79.0,74.1,30.08,ESE,119,1.0,11.0,85,0.00,,,0.00,Wunderground v.1.15,2013-06-24 06:51:00,
2013-06-24 02:54:00,79.0,74.1,30.08,SE,134,0.0,11.0,85,0.00,,,0.00,Wunderground v.1.15,2013-06-24 06:54:00,
2013-06-24 03:00:00,78.8,73.9,30.08,SE,139,0.0,0.0,85,0.00,,,0.00,Wunderground v.1.15,2013-06-24 07:00:00,
2013-06-24 03:01:00,78.8,73.9,30.08,SE,130,0.0,0.0,85,0.00,,,0.00,Wunderground v.1.15,2013-06-24 07:01:00,
2013-06-24 03:04:00,78.7,73.8,30.08,ENE,68,0.0,1.0,85,0.00,,,0.00,Wunderground v.1.15,2013-06-24 07:04:00,
2013-06-24 03:05:00,78.7,74.2,30.08,ENE,68,0.0,1.0,86,0.00,,,0.00,Wunderground v.1.15,2013-06-24 07:05:00,
2013-06-24 03:07:00,78.7,74.2,30.08,ENE,68,0.0,1.0,86,0.00,,,0.00,Wunderground v.1.15,2013-06-24 07:07:00,
2013-06-24 03:10:00,78.6,74.1,30.08,ESE,115,0.0,0.0,86,0.00,,,0.00,Wunderground v.1.15,2013-06-24 07:10:00,
2013-06-24 03:12:00,78.6,74.1,30.08,ESE,115,0.0,0.0,86,0.00,,,0.00,Wunderground v.1.15,2013-06-24 07:12:00,
2013-06-24 03:14:00,78.6,74.1,30.08,ESE,115,0.0,0.0,86,0.00,,,0.00,Wunderground v.1.15,2013-06-24 07:14:00,
2013-06-24 03:15:00,78.5,74.0,30.08,ESE,115,0.0,0.0,86,0.00,,,0.00,Wunderground v.1.15,2013-06-24 07:15:00,
2013-06-24 03:17:00,78.5,74.0,30.08,ESE,115,0.0,0.0,86,0.00,,,0.00,Wunderground v.1.15,2013-06-24 07:17:00,
2013-06-24 03:19:00,78.4,73.9,30.08,ESE,115,0.0,0.0,86,0.00,,,0.00,Wunderground v.1.15,2013-06-24 07:19:00,
2013-06-24 03:20:00,78.4,73.9,30.08,ESE,115,0.0,0.0,86,0.00,,,0.00,Wunderground v.1.15,2013-06-24 07:20:00,
2013-06-24 03:22:00,78.3,74.1,30.08,ESE,115,0.0,0.0,87,0.00,,,0.00,Wunderground v.1.15,2013-06-24 07:22:00,
2013-06-24 03:25:00,78.1,73.9,30.08,ESE,115,0.0,0.0,87,0.00,,,0.00,Wunderground v.1.15,2013-06-24 07:25:00,
2013-06-24 03:26:00,78.0,73.8,30.08,ESE,115,0.0,0.0,87,0.00,,,0.00,Wunderground v.1.15,2013-06-24 07:26:00,
2013-06-24 03:27:00,78.0,74.2,30.08,ESE,115,0.0,0.0,88,0.00,,,0.00,Wunderground v.1.15,2013-06-24 07:27:00,
2013-06-24 03:31:00,77.8,74.0,30.08,ESE,115,0.0,8.0,88,0.00,,,0.00,Wunderground v.1.15,2013-06-24 07:31:00,
2013-06-24 03:33:00,77.7,73.9,30.08,ENE,63,0.0,8.0,88,0.00,,,0.00,Wunderground v.1.15,2013-06-24 07:33:00,
2013-06-24 03:37:00,77.8,74.0,30.08,East,79,0.0,8.0,88,0.00,,,0.00,Wunderground v.1.15,2013-06-24 07:37:00,
2013-06-24 03:39:00,77.8,73.6,30.08,East,83,0.0,8.0,87,0.00,,,0.00,Wunderground v.1.15,2013-06-24 07:39:00,
2013-06-24 03:40:00,77.9,73.7,30.08,East,99,0.0,8.0,87,0.00,,,0.00,Wunderground v.1.15,2013-06-24 07:40:00,
2013-06-24 03:43:00,78.1,73.6,30.08,East,84,0.0,8.0,86,0.00,,,0.00,Wunderground v.1.15,2013-06-24 07:43:00,
2013-06-24 03:44:00,78.2,73.3,30.08,ENE,68,0.0,8.0,85,0.00,,,0.00,Wunderground v.1.15,2013-06-24 07:44:00,
2013-06-24 03:48:00,78.6,73.4,30.08,East,92,1.0,8.0,84,0.00,,,0.00,Wunderground v.1.15,2013-06-24 07:48:00,
2013-06-24 03:49:00,78.7,73.5,30.08,SE,125,1.0,8.0,84,0.00,,,0.00,Wunderground v.1.15,2013-06-24 07:49:00,
2013-06-24 03:50:00,78.9,73.3,30.08,SE,131,1.0,1.0,83,0.00,,,0.00,Wunderground v.1.15,2013-06-24 07:50:00,
2013-06-24 03:51:00,79.0,73.4,30.08,SE,137,1.0,8.0,83,0.00,,,0.00,Wunderground v.1.15,2013-06-24 07:51:00,
2013-06-24 03:55:00,79.4,73.4,30.08,ENE,66,1.0,8.0,82,0.00,,,0.00,Wunderground v.1.15,2013-06-24 07:55:00,
2013-06-24 03:57:00,79.5,73.5,30.07,ESE,112,1.0,8.0,82,0.00,,,0.00,Wunderground v.1.15,2013-06-24 07:57:00,
2013-06-24 03:58:00,79.6,73.6,30.07,East,97,2.0,8.0,82,0.00,,,0.00,Wunderground v.1.15,2013-06-24 07:58:00,
2013-06-24 04:02:00,79.9,73.5,30.07,ENE,77,2.0,4.0,81,0.00,,,0.00,Wunderground v.1.15,2013-06-24 08:02:00,
2013-06-24 04:03:00,80.0,73.6,30.07,ENE,70,2.0,4.0,81,0.00,,,0.00,Wunderground v.1.15,2013-06-24 08:03:00,
2013-06-24 04:04:00,80.0,73.6,30.07,ENE,68,2.0,4.0,81,0.00,,,0.00,Wunderground v.1.15,2013-06-24 08:04:00,
2013-06-24 04:07:00,80.2,73.8,30.07,East,90,2.0,4.0,81,0.00,,,0.00,Wunderground v.1.15,2013-06-24 08:07:00,
2013-06-24 04:09:00,80.2,73.5,30.07,ESE,119,2.0,4.0,80,0.00,,,0.00,Wunderground v.1.15,2013-06-24 08:09:00,
2013-06-24 04:10:00,80.3,73.6,30.07,ENE,70,2.0,5.0,80,0.00,,,0.00,Wunderground v.1.15,2013-06-24 08:10:00,
2013-06-24 04:12:00,80.3,73.6,30.07,East,80,3.0,5.0,80,0.00,,,0.00,Wunderground v.1.15,2013-06-24 08:12:00,
2013-06-24 04:14:00,80.4,73.3,30.07,ENE,62,3.0,5.0,79,0.00,,,0.00,Wunderground v.1.15,2013-06-24 08:14:00,
2013-06-24 04:15:00,80.4,73.3,30.07,ESE,112,3.0,5.0,79,0.00,,,0.00,Wunderground v.1.15,2013-06-24 08:15:00,
2013-06-24 04:16:00,80.4,73.3,30.07,ENE,69,2.0,5.0,79,0.00,,,0.00,Wunderground v.1.15,2013-06-24 08:16:00,
2013-06-24 04:18:00,80.5,73.4,30.07,ENE,65,2.0,5.0,79,0.00,,,0.00,Wunderground v.1.15,2013-06-24 08:18:00,
2013-06-24 04:22:00,80.4,73.3,30.07,East,97,2.0,2.0,79,0.00,,,0.00,Wunderground v.1.15,2013-06-24 08:22:00,
2013-06-24 04:23:00,80.5,73.0,30.07,East,95,2.0,2.0,78,0.00,,,0.00,Wunderground v.1.15,2013-06-24 08:23:00,
2013-06-24 04:28:00,80.5,73.4,30.07,ESE,115,2.0,2.0,79,0.00,,,0.00,Wunderground v.1.15,2013-06-24 08:28:00,
2013-06-24 04:29:00,80.5,73.4,30.07,ESE,105,2.0,2.0,79,0.00,,,0.00,Wunderground v.1.15,2013-06-24 08:29:00,
2013-06-24 04:31:00,80.5,73.4,30.07,East,81,2.0,2.0,79,0.00,,,0.00,Wunderground v.1.15,2013-06-24 08:31:00,
2013-06-24 04:34:00,80.5,73.4,30.07,East,101,2.0,4.0,79,0.00,,,0.00,Wunderground v.1.15,2013-06-24 08:34:00,
2013-06-24 04:35:00,80.5,73.4,30.07,ENE,77,2.0,4.0,79,0.00,,,0.00,Wunderground v.1.15,2013-06-24 08:35:00,
2013-06-24 04:36:00,80.5,73.4,30.07,ESE,105,2.0,4.0,79,0.00,,,0.00,Wunderground v.1.15,2013-06-24 08:36:00,
2013-06-24 04:37:00,80.5,73.4,30.07,SE,142,2.0,4.0,79,0.00,,,0.00,Wunderground v.1.15,2013-06-24 08:37:00,
2013-06-24 04:40:00,80.5,73.4,30.07,NE,56,2.0,4.0,79,0.00,,,0.00,Wunderground v.1.15,2013-06-24 08:40:00,
2013-06-24 04:43:00,80.5,73.4,30.07,North,357,2.0,5.0,79,0.00,,,0.00,Wunderground v.1.15,2013-06-24 08:43:00,
2013-06-24 04:45:00,80.5,73.4,30.07,SE,134,3.0,5.0,79,0.00,,,0.00,Wunderground v.1.15,2013-06-24 08:45:00,
2013-06-24 04:46:00,80.5,73.4,30.07,ESE,121,2.0,5.0,79,0.00,,,0.00,Wunderground v.1.15,2013-06-24 08:46:00,
2013-06-24 04:49:00,80.5,73.8,30.07,ENE,71,2.0,5.0,80,0.00,,,0.00,Wunderground v.1.15,2013-06-24 08:49:00,
2013-06-24 04:51:00,80.5,73.8,30.07,ENE,72,2.0,2.0,80,0.00,,,0.00,Wunderground v.1.15,2013-06-24 08:51:00,
2013-06-24 04:54:00,80.5,73.8,30.07,SE,136,1.0,3.0,80,0.00,,,0.00,Wunderground v.1.15,2013-06-24 08:54:00,
2013-06-24 04:57:00,80.5,73.8,30.07,ENE,69,2.0,4.0,80,0.00,,,0.00,Wunderground v.1.15,2013-06-24 08:57:00,
2013-06-24 05:02:00,80.7,74.0,30.07,ESE,108,2.0,4.0,80,0.00,,,0.00,Wunderground v.1.15,2013-06-24 09:02:00,
2013-06-24 05:03:00,80.7,74.0,30.07,SE,136,2.0,4.0,80,0.00,,,0.00,Wunderground v.1.15,2013-06-24 09:03:00,
2013-06-24 05:04:00,80.7,74.0,30.07,ENE,76,2.0,4.0,80,0.00,,,0.00,Wunderground v.1.15,2013-06-24 09:04:00,
2013-06-24 05:07:00,80.8,73.7,30.07,ENE,64,2.0,4.0,79,0.00,,,0.00,Wunderground v.1.15,2013-06-24 09:07:00,
2013-06-24 05:09:00,80.8,73.7,30.07,ESE,115,2.0,4.0,79,0.00,,,0.00,Wunderground v.1.15,2013-06-24 09:09:00,
2013-06-24 05:11:00,80.8,73.7,30.07,SE,134,2.0,2.0,79,0.00,,,0.00,Wunderground v.1.15,2013-06-24 09:11:00,
2013-06-24 05:13:00,80.8,73.7,30.07,ESE,119,2.0,2.0,79,0.00,,,0.00,Wunderground v.1.15,2013-06-24 09:13:00,
2013-06-24 05:17:00,80.8,74.0,30.07,SE,138,2.0,5.0,80,0.00,,,0.00,Wunderground v.1.15,2013-06-24 09:17:00,
2013-06-24 05:18:00,80.8,74.0,30.07,ENE,59,2.0,5.0,80,0.00,,,0.00,Wunderground v.1.15,2013-06-24 09:18:00,
2013-06-24 05:19:00,80.8,74.0,30.07,ESE,109,2.0,5.0,80,0.00,,,0.00,Wunderground v.1.15,2013-06-24 09:19:00,
2013-06-24 05:22:00,80.8,74.0,30.07,East,83,2.0,3.0,80,0.00,,,0.00,Wunderground v.1.15,2013-06-24 09:22:00,
2013-06-24 05:25:00,80.7,74.0,30.07,SE,138,2.0,3.0,80,0.00,,,0.00,Wunderground v.1.15,2013-06-24 09:25:00,
2013-06-24 05:27:00,80.7,74.0,30.07,East,95,2.0,4.0,80,0.00,,,0.00,Wunderground v.1.15,2013-06-24 09:27:00,
2013-06-24 05:29:00,80.7,74.0,30.07,ESE,117,2.0,4.0,80,0.00,,,0.00,Wunderground v.1.15,2013-06-24 09:29:00,
2013-06-24 05:30:00,80.6,73.9,30.07,ESE,104,2.0,2.0,80,0.00,,,0.00,Wunderground v.1.15,2013-06-24 09:30:00,
2013-06-24 05:31:00,80.6,73.9,30.07,ESE,105,2.0,6.0,80,0.00,,,0.00,Wunderground v.1.15,2013-06-24 09:31:00,
2013-06-24 05:36:00,80.6,73.9,30.07,ESE,109,2.0,6.0,80,0.00,,,0.00,Wunderground v.1.15,2013-06-24 09:36:00,
2013-06-24 05:38:00,80.6,73.9,30.07,East,100,2.0,6.0,80,0.00,,,0.00,Wunderground v.1.15,2013-06-24 09:38:00,
2013-06-24 05:39:00,80.6,73.9,30.08,SSE,152,2.0,6.0,80,0.00,,,0.00,Wunderground v.1.15,2013-06-24 09:39:00,
2013-06-24 05:41:00,80.6,73.9,30.08,East,93,3.0,6.0,80,0.00,,,0.00,Wunderground v.1.15,2013-06-24 09:41:00,
2013-06-24 05:42:00,80.6,73.9,30.07,ESE,102,3.0,6.0,80,0.00,,,0.00,Wunderground v.1.15,2013-06-24 09:42:00,
2013-06-24 05:47:00,80.5,73.8,30.08,ENE,63,2.0,6.0,80,0.00,,,0.00,Wunderground v.1.15,2013-06-24 09:47:00,
2013-06-24 05:48:00,80.5,73.8,30.08,SSE,148,2.0,6.0,80,0.00,,,0.00,Wunderground v.1.15,2013-06-24 09:48:00,
2013-06-24 05:52:00,80.5,73.8,30.08,ENE,62,2.0,6.0,80,0.00,,,0.00,Wunderground v.1.15,2013-06-24 09:52:00,
2013-06-24 05:54:00,80.5,73.8,30.08,ENE,74,2.0,6.0,80,0.00,,,0.00,Wunderground v.1.15,2013-06-24 09:54:00,
2013-06-24 05:55:00,80.5,73.8,30.08,ESE,122,2.0,6.0,80,0.00,,,0.00,Wunderground v.1.15,2013-06-24 09:55:00,
2013-06-24 05:57:00,80.5,73.8,30.08,SE,130,2.0,6.0,80,0.00,,,0.00,Wunderground v.1.15,2013-06-24 09:57:00,
2013-06-24 05:58:00,80.5,73.8,30.08,ENE,71,2.0,6.0,80,0.00,,,0.00,Wunderground v.1.15,2013-06-24 09:58:00,
2013-06-24 06:02:00,80.5,73.8,30.08,SE,138,1.0,2.0,80,0.00,,,0.00,Wunderground v.1.15,2013-06-24 10:02:00,
2013-06-24 06:03:00,80.5,73.8,30.08,East,96,1.0,2.0,80,0.00,,,0.00,Wunderground v.1.15,2013-06-24 10:03:00,
2013-06-24 06:05:00,80.5,73.8,30.08,SE,139,1.0,3.0,80,0.00,,,0.00,Wunderground v.1.15,2013-06-24 10:05:00,
2013-06-24 06:08:00,80.6,73.5,30.08,SE,124,1.0,3.0,79,0.00,,,0.00,Wunderground v.1.15,2013-06-24 10:08:00,
2013-06-24 06:09:00,80.6,73.9,30.08,SE,124,1.0,3.0,80,0.00,,,0.00,Wunderground v.1.15,2013-06-24 10:09:00,
2013-06-24 06:12:00,80.6,73.9,30.08,SE,132,1.0,2.0,80,0.00,,,0.00,Wunderground v.1.15,2013-06-24 10:12:00,
2013-06-24 06:17:00,80.3,73.9,30.08,SE,131,1.0,2.0,81,0.00,,,0.00,Wunderground v.1.15,2013-06-24 10:17:00,
2013-06-24 06:18:00,80.2,74.2,30.08,SE,141,0.0,2.0,82,0.00,,,0.00,Wunderground v.1.15,2013-06-24 10:18:00,
2013-06-24 06:22:00,79.9,74.3,30.08,SE,144,1.0,1.0,83,0.00,,,0.00,Wunderground v.1.15,2013-06-24 10:22:00,
2013-06-24 06:24:00,79.7,74.1,30.08,SE,144,0.0,1.0,83,0.00,,,0.00,Wunderground v.1.15,2013-06-24 10:24:00,
2013-06-24 06:27:00,79.6,74.3,30.08,SE,144,0.0,1.0,84,0.00,,,0.00,Wunderground v.1.15,2013-06-24 10:27:00,
2013-06-24 06:28:00,79.5,74.2,30.08,SE,144,0.0,1.0,84,0.00,,,0.00,Wunderground v.1.15,2013-06-24 10:28:00,
2013-06-24 06:29:00,79.4,74.1,30.08,SE,144,0.0,1.0,84,0.00,,,0.00,Wunderground v.1.15,2013-06-24 10:29:00,
2013-06-24 06:33:00,79.2,74.3,30.09,East,93,0.0,9.0,85,0.00,,,0.00,Wunderground v.1.15,2013-06-24 10:33:00,
2013-06-24 06:35:00,79.2,74.3,30.09,SSE,154,0.0,9.0,85,0.00,,,0.00,Wunderground v.1.15,2013-06-24 10:35:00,
2013-06-24 06:37:00,79.2,74.3,30.09,ESE,122,0.0,9.0,85,0.00,,,0.00,Wunderground v.1.15,2013-06-24 10:37:00,
2013-06-24 06:39:00,79.2,73.9,30.09,ESE,114,1.0,9.0,84,0.00,,,0.00,Wunderground v.1.15,2013-06-24 10:39:00,
2013-06-24 06:40:00,79.3,74.4,30.09,ESE,123,1.0,9.0,85,0.00,,,0.00,Wunderground v.1.15,2013-06-24 10:40:00,
2013-06-24 06:42:00,79.3,74.4,30.09,ESE,115,1.0,9.0,85,0.00,,,0.00,Wunderground v.1.15,2013-06-24 10:42:00,
2013-06-24 06:44:00,79.3,74.0,30.09,ESE,110,1.0,9.0,84,0.00,,,0.00,Wunderground v.1.15,2013-06-24 10:44:00,
2013-06-24 06:46:00,79.3,74.0,30.09,ESE,105,1.0,9.0,84,0.00,,,0.00,Wunderground v.1.15,2013-06-24 10:46:00,
2013-06-24 06:47:00,79.3,74.0,30.09,East,94,1.0,9.0,84,0.00,,,0.00,Wunderground v.1.15,2013-06-24 10:47:00,
2013-06-24 06:50:00,79.3,74.0,30.09,ESE,120,0.0,9.0,84,0.00,,,0.00,Wunderground v.1.15,2013-06-24 10:50:00,
2013-06-24 06:53:00,79.3,73.7,30.09,SE,138,0.0,9.0,83,0.00,,,0.00,Wunderground v.1.15,2013-06-24 10:53:00,
2013-06-24 06:55:00,79.3,73.7,30.09,SE,138,1.0,9.0,83,0.00,,,0.00,Wunderground v.1.15,2013-06-24 10:55:00,
2013-06-24 06:56:00,79.3,73.7,30.09,SE,129,1.0,9.0,83,0.00,,,0.00,Wunderground v.1.15,2013-06-24 10:56:00,
2013-06-24 06:59:00,79.3,73.7,30.09,SE,142,1.0,9.0,83,0.00,,,0.00,Wunderground v.1.15,2013-06-24 10:59:00,
2013-06-24 07:02:00,79.4,73.4,30.09,East,101,1.0,1.0,82,0.00,,,0.00,Wunderground v.1.15,2013-06-24 11:02:00,
2013-06-24 07:04:00,79.3,73.3,30.09,ESE,110,1.0,1.0,82,0.00,,,0.00,Wunderground v.1.15,2013-06-24 11:04:00,
2013-06-24 07:09:00,79.4,73.8,30.09,East,82,0.0,1.0,83,0.00,,,0.00,Wunderground v.1.15,2013-06-24 11:09:00,
2013-06-24 07:10:00,79.4,73.8,30.10,East,79,0.0,0.0,83,0.00,,,0.00,Wunderground v.1.15,2013-06-24 11:10:00,
2013-06-24 07:16:00,79.8,73.8,30.10,SE,141,1.0,4.0,82,0.00,,,0.00,Wunderground v.1.15,2013-06-24 11:16:00,
2013-06-24 07:17:00,79.9,73.5,30.10,East,83,1.0,4.0,81,0.00,,,0.00,Wunderground v.1.15,2013-06-24 11:17:00,
2013-06-24 07:19:00,79.9,73.5,30.10,ESE,112,1.0,4.0,81,0.00,,,0.00,Wunderground v.1.15,2013-06-24 11:19:00,
2013-06-24 07:20:00,79.9,73.5,30.10,SE,134,1.0,3.0,81,0.00,,,0.00,Wunderground v.1.15,2013-06-24 11:20:00,
2013-06-24 07:23:00,79.9,73.2,30.10,SSE,153,2.0,4.0,80,0.00,,,0.00,Wunderground v.1.15,2013-06-24 11:23:00,
2013-06-24 07:26:00,79.6,73.6,30.10,East,99,2.0,6.0,82,0.00,,,0.01,Wunderground v.1.15,2013-06-24 11:26:00,
2013-06-24 07:28:00,79.4,73.4,30.10,East,101,3.0,6.0,82,0.00,,,0.01,Wunderground v.1.15,2013-06-24 11:28:00,
2013-06-24 07:29:00,79.3,73.3,30.10,ENE,78,3.0,6.0,82,0.10,,,0.02,Wunderground v.1.15,2013-06-24 11:29:00,
2013-06-24 07:31:00,79.2,73.6,30.10,East,99,3.0,4.0,83,0.10,,,0.02,Wunderground v.1.15,2013-06-24 11:31:00,
2013-06-24 07:34:00,79.1,74.2,30.10,SE,137,2.0,4.0,85,0.10,,,0.02,Wunderground v.1.15,2013-06-24 11:34:00,
2013-06-24 07:35:00,79.1,74.2,30.10,ESE,120,2.0,4.0,85,0.10,,,0.02,Wunderground v.1.15,2013-06-24 11:35:00,
2013-06-24 07:41:00,78.9,74.7,30.11,SE,143,1.0,4.0,87,0.05,,,0.02,Wunderground v.1.15,2013-06-24 11:41:00,
2013-06-24 07:43:00,78.9,74.7,30.11,East,87,1.0,4.0,87,0.04,,,0.02,Wunderground v.1.15,2013-06-24 11:43:00,
2013-06-24 07:48:00,78.9,74.7,30.11,ENE,70,1.0,4.0,87,0.04,,,0.03,Wunderground v.1.15,2013-06-24 11:48:00,
2013-06-24 07:49:00,78.9,75.0,30.11,NW,321,1.0,4.0,88,0.04,,,0.03,Wunderground v.1.15,2013-06-24 11:49:00,
2013-06-24 07:53:00,78.7,74.5,30.11,ENE,73,1.0,4.0,87,0.04,,,0.03,Wunderground v.1.15,2013-06-24 11:53:00,
2013-06-24 07:56:00,78.7,74.8,30.11,East,91,1.0,4.0,88,0.04,,,0.03,Wunderground v.1.15,2013-06-24 11:56:00,
2013-06-24 07:57:00,78.8,74.9,30.11,SSE,162,1.0,4.0,88,0.04,,,0.03,Wunderground v.1.15,2013-06-24 11:57:00,
2013-06-24 08:02:00,78.8,74.6,30.11,East,89,1.0,2.0,87,0.00,,,0.03,Wunderground v.1.15,2013-06-24 12:02:00,
2013-06-24 08:03:00,78.8,74.9,30.11,East,81,1.0,2.0,88,0.00,,,0.03,Wunderground v.1.15,2013-06-24 12:03:00,
2013-06-24 08:04:00,78.8,74.9,30.11,East,98,1.0,2.0,88,0.00,,,0.03,Wunderground v.1.15,2013-06-24 12:04:00,
2013-06-24 08:09:00,78.9,75.0,30.11,East,94,0.0,2.0,88,0.00,,,0.03,Wunderground v.1.15,2013-06-24 12:09:00,
2013-06-24 08:10:00,78.9,75.0,30.11,East,93,0.0,1.0,88,0.00,,,0.03,Wunderground v.1.15,2013-06-24 12:10:00,
2013-06-24 08:11:00,78.9,74.7,30.11,East,93,0.0,1.0,87,0.00,,,0.03,Wunderground v.1.15,2013-06-24 12:11:00,
2013-06-24 08:16:00,78.9,74.7,30.11,East,80,0.0,1.0,87,0.00,,,0.03,Wunderground v.1.15,2013-06-24 12:16:00,
2013-06-24 08:17:00,78.9,74.7,30.11,ENE,68,0.0,1.0,87,0.00,,,0.03,Wunderground v.1.15,2013-06-24 12:17:00,
2013-06-24 08:18:00,78.9,74.7,30.11,ENE,72,1.0,4.0,87,0.00,,,0.03,Wunderground v.1.15,2013-06-24 12:18:00,
2013-06-24 08:19:00,78.9,74.7,30.11,NE,56,1.0,4.0,87,0.00,,,0.03,Wunderground v.1.15,2013-06-24 12:19:00,
2013-06-24 08:24:00,78.9,74.7,30.12,East,100,2.0,2.0,87,0.00,,,0.04,Wunderground v.1.15,2013-06-24 12:24:00,
2013-06-24 08:25:00,78.9,74.7,30.12,East,82,2.0,2.0,87,0.00,,,0.04,Wunderground v.1.15,2013-06-24 12:25:00,
2013-06-24 08:26:00,78.9,74.7,30.12,SE,136,2.0,2.0,87,0.00,,,0.04,Wunderground v.1.15,2013-06-24 12:26:00,
2013-06-24 08:29:00,79.0,75.1,30.12,NNE,26,1.0,2.0,88,0.00,,,0.04,Wunderground v.1.15,2013-06-24 12:29:00,
2013-06-24 08:31:00,79.0,74.8,30.11,SE,141,1.0,7.0,87,0.00,,,0.04,Wunderground v.1.15,2013-06-24 12:31:00,
2013-06-24 08:33:00,79.2,75.3,30.12,SE,136,1.0,7.0,88,0.00,,,0.04,Wunderground v.1.15,2013-06-24 12:33:00,
2013-06-24 08:36:00,79.6,75.4,30.11,SE,131,1.0,7.0,87,0.00,,,0.04,Wunderground v.1.15,2013-06-24 12:36:00,
2013-06-24 08:37:00,79.6,75.4,30.12,SE,139,1.0,7.0,87,0.00,,,0.04,Wunderground v.1.15,2013-06-24 12:37:00,
2013-06-24 08:38:00,79.7,75.5,30.12,East,96,1.0,7.0,87,0.00,,,0.04,Wunderground v.1.15,2013-06-24 12:38:00,
2013-06-24 08:41:00,80.1,75.9,30.12,SE,137,1.0,7.0,87,0.00,,,0.04,Wunderground v.1.15,2013-06-24 12:41:00,
2013-06-24 08:42:00,80.3,76.1,30.12,ESE,123,1.0,7.0,87,0.00,,,0.04,Wunderground v.1.15,2013-06-24 12:42:00,
2013-06-24 08:44:00,80.7,76.5,30.12,SSE,156,1.0,7.0,87,0.00,,,0.04,Wunderground v.1.15,2013-06-24 12:44:00,
2013-06-24 08:46:00,81.1,76.9,30.12,East,86,1.0,7.0,87,0.00,,,0.04,Wunderground v.1.15,2013-06-24 12:46:00,
2013-06-24 08:47:00,81.4,76.8,30.12,SE,141,1.0,7.0,86,0.00,,,0.04,Wunderground v.1.15,2013-06-24 12:47:00,
2013-06-24 08:50:00,82.2,77.6,30.12,East,85,1.0,1.0,86,0.00,,,0.04,Wunderground v.1.15,2013-06-24 12:50:00,
2013-06-24 08:51:00,82.6,77.6,30.12,SSE,148,1.0,2.0,85,0.00,,,0.04,Wunderground v.1.15,2013-06-24 12:51:00,
2013-06-24 08:52:00,82.7,76.6,30.12,East,82,1.0,3.0,82,0.00,,,0.04,Wunderground v.1.15,2013-06-24 12:52:00,
2013-06-24 08:56:00,82.8,76.4,30.12,ENE,69,2.0,7.0,81,0.00,,,0.04,Wunderground v.1.15,2013-06-24 12:56:00,
2013-06-24 08:58:00,82.8,76.7,30.12,ESE,113,2.0,7.0,82,0.00,,,0.04,Wunderground v.1.15,2013-06-24 12:58:00,
2013-06-24 08:59:00,82.8,76.7,30.12,East,81,2.0,7.0,82,0.00,,,0.04,Wunderground v.1.15,2013-06-24 12:59:00,
2013-06-24 09:01:00,83.0,76.6,30.12,East,82,3.0,4.0,81,0.00,,,0.04,Wunderground v.1.15,2013-06-24 13:01:00,
2013-06-24 09:04:00,83.4,77.0,30.12,East,80,2.0,5.0,81,0.00,,,0.04,Wunderground v.1.15,2013-06-24 13:04:00,
2013-06-24 09:05:00,83.7,77.6,30.12,ENE,68,2.0,5.0,82,0.00,,,0.04,Wunderground v.1.15,2013-06-24 13:05:00,
2013-06-24 09:08:00,83.9,76.7,30.12,East,93,3.0,5.0,79,0.00,,,0.04,Wunderground v.1.15,2013-06-24 13:08:00,
2013-06-24 09:10:00,83.7,76.1,30.12,South,180,3.0,3.0,78,0.00,,,0.04,Wunderground v.1.15,2013-06-24 13:10:00,
2013-06-24 09:12:00,83.4,75.4,30.12,South,174,3.0,5.0,77,0.00,,,0.04,Wunderground v.1.15,2013-06-24 13:12:00,
2013-06-24 09:13:00,83.3,75.7,30.12,East,95,3.0,8.0,78,0.00,,,0.04,Wunderground v.1.15,2013-06-24 13:13:00,
2013-06-24 09:15:00,82.8,74.5,30.12,East,89,5.0,9.0,76,0.00,,,0.04,Wunderground v.1.15,2013-06-24 13:15:00,
2013-06-24 09:16:00,82.6,74.7,30.13,ESE,108,5.0,9.0,77,0.00,,,0.04,Wunderground v.1.15,2013-06-24 13:16:00,
2013-06-24 09:18:00,82.2,74.7,30.13,SE,143,4.0,9.0,78,0.00,,,0.04,Wunderground v.1.15,2013-06-24 13:18:00,
2013-06-24 09:20:00,81.9,74.7,30.13,SE,131,5.0,5.0,79,0.00,,,0.04,Wunderground v.1.15,2013-06-24 13:20:00,
2013-06-24 09:25:00,81.7,75.7,30.13,ENE,77,3.0,5.0,82,0.00,,,0.04,Wunderground v.1.15,2013-06-24 13:25:00,
2013-06-24 09:27:00,81.7,76.0,30.13,ENE,58,3.0,5.0,83,0.00,,,0.04,Wunderground v.1.15,2013-06-24 13:27:00,
2013-06-24 09:29:00,81.9,75.9,30.13,East,94,2.0,7.0,82,0.00,,,0.04,Wunderground v.1.15,2013-06-24 13:29:00,
2013-06-24 09:30:00,81.9,75.9,30.13,ESE,122,3.0,3.0,82,0.00,,,0.04,Wunderground v.1.15,2013-06-24 13:30:00,
2013-06-24 09:32:00,82.2,75.4,30.13,East,96,3.0,8.0,80,0.00,,,0.04,Wunderground v.1.15,2013-06-24 13:32:00,
2013-06-24 09:38:00,82.2,75.0,30.13,NE,52,4.0,8.0,79,0.00,,,0.04,Wunderground v.1.15,2013-06-24 13:38:00,
2013-06-24 09:40:00,82.0,74.8,30.13,NE,56,4.0,5.0,79,0.00,,,0.04,Wunderground v.1.15,2013-06-24 13:40:00,
2013-06-24 09:44:00,81.9,74.7,30.13,East,82,4.0,6.0,79,0.00,,,0.04,Wunderground v.1.15,2013-06-24 13:44:00,
2013-06-24 09:45:00,81.9,74.7,30.13,ENE,72,3.0,6.0,79,0.00,,,0.04,Wunderground v.1.15,2013-06-24 13:45:00,
2013-06-24 09:47:00,82.0,74.8,30.13,ESE,123,3.0,6.0,79,0.00,,,0.04,Wunderground v.1.15,2013-06-24 13:47:00,
2013-06-24 09:48:00,82.0,74.8,30.13,SSE,160,3.0,6.0,79,0.00,,,0.04,Wunderground v.1.15,2013-06-24 13:48:00,
2013-06-24 09:52:00,82.4,75.2,30.13,ENE,77,3.0,5.0,79,0.00,,,0.04,Wunderground v.1.15,2013-06-24 13:52:00,
2013-06-24 09:54:00,82.5,75.3,30.13,SE,141,3.0,5.0,79,0.00,,,0.04,Wunderground v.1.15,2013-06-24 13:54:00,
2013-06-24 09:55:00,82.6,75.4,30.13,ESE,120,3.0,5.0,79,0.00,,,0.04,Wunderground v.1.15,2013-06-24 13:55:00,
2013-06-24 09:56:00,82.7,75.1,30.13,East,84,3.0,5.0,78,0.00,,,0.04,Wunderground v.1.15,2013-06-24 13:56:00,
2013-06-24 09:59:00,82.8,75.6,30.13,East,86,3.0,5.0,79,0.00,,,0.04,Wunderground v.1.15,2013-06-24 13:59:00,
2013-06-24 10:00:00,82.8,75.6,30.13,ENE,65,3.0,3.0,79,0.00,,,0.04,Wunderground v.1.15,2013-06-24 14:00:00,
2013-06-24 10:01:00,82.9,75.7,30.13,ENE,61,2.0,4.0,79,0.00,,,0.04,Wunderground v.1.15,2013-06-24 14:01:00,
2013-06-24 10:03:00,83.2,76.0,30.13,ENE,74,2.0,4.0,79,0.00,,,0.04,Wunderground v.1.15,2013-06-24 14:03:00,
2013-06-24 10:06:00,83.5,75.9,30.14,ENE,60,2.0,4.0,78,0.00,,,0.04,Wunderground v.1.15,2013-06-24 14:06:00,
2013-06-24 10:09:00,83.8,75.8,30.14,SE,140,2.0,5.0,77,0.00,,,0.04,Wunderground v.1.15,2013-06-24 14:09:00,
2013-06-24 10:10:00,84.0,76.0,30.14,ENE,68,2.0,4.0,77,0.00,,,0.04,Wunderground v.1.15,2013-06-24 14:10:00,
2013-06-24 10:11:00,84.2,75.8,30.13,SSE,158,3.0,7.0,76,0.00,,,0.04,Wunderground v.1.15,2013-06-24 14:11:00,
2013-06-24 10:14:00,84.4,74.8,30.13,ENE,64,3.0,8.0,73,0.00,,,0.05,Wunderground v.1.15,2013-06-24 14:14:00,
2013-06-24 10:16:00,84.6,75.4,30.14,NE,51,3.0,8.0,74,0.00,,,0.05,Wunderground v.1.15,2013-06-24 14:16:00,
2013-06-24 10:18:00,84.8,75.2,30.13,East,79,4.0,8.0,73,0.00,,,0.05,Wunderground v.1.15,2013-06-24 14:18:00,
2013-06-24 10:20:00,85.1,75.5,30.13,SE,134,4.0,7.0,73,0.00,,,0.05,Wunderground v.1.15,2013-06-24 14:20:00,
2013-06-24 10:24:00,85.7,75.2,30.13,SSE,165,4.0,7.0,71,0.00,,,0.05,Wunderground v.1.15,2013-06-24 14:24:00,
2013-06-24 10:25:00,85.8,75.3,30.13,SE,136,4.0,7.0,71,0.00,,,0.05,Wunderground v.1.15,2013-06-24 14:25:00,
2013-06-24 10:27:00,86.0,74.6,30.14,SE,125,5.0,7.0,69,0.00,,,0.05,Wunderground v.1.15,2013-06-24 14:27:00,
2013-06-24 10:30:00,86.2,75.3,30.14,NE,50,5.0,8.0,70,0.00,,,0.05,Wunderground v.1.15,2013-06-24 14:30:00,
2013-06-24 10:32:00,86.3,75.4,30.14,ENE,63,5.0,13.0,70,0.00,,,0.05,Wunderground v.1.15,2013-06-24 14:32:00,
2013-06-24 10:33:00,86.3,74.9,30.14,SE,146,5.0,13.0,69,0.00,,,0.05,Wunderground v.1.15,2013-06-24 14:33:00,
2013-06-24 10:36:00,86.1,75.2,30.14,East,82,5.0,13.0,70,0.00,,,0.05,Wunderground v.1.15,2013-06-24 14:36:00,
2013-06-24 10:38:00,86.0,75.1,30.14,ENE,77,4.0,13.0,70,0.00,,,0.05,Wunderground v.1.15,2013-06-24 14:38:00,
2013-06-24 10:40:00,86.1,75.2,30.14,East,90,4.0,4.0,70,0.00,,,0.05,Wunderground v.1.15,2013-06-24 14:40:00,
2013-06-24 10:41:00,86.2,75.3,30.14,ESE,107,4.0,6.0,70,0.00,,,0.05,Wunderground v.1.15,2013-06-24 14:41:00,
2013-06-24 10:42:00,86.2,74.8,30.14,East,79,4.0,13.0,69,0.00,,,0.05,Wunderground v.1.15,2013-06-24 14:42:00,
2013-06-24 10:46:00,86.0,74.6,30.14,SE,131,4.0,13.0,69,0.00,,,0.05,Wunderground v.1.15,2013-06-24 14:46:00,
2013-06-24 10:47:00,86.0,74.6,30.14,SSE,157,4.0,13.0,69,0.00,,,0.05,Wunderground v.1.15,2013-06-24 14:47:00,
2013-06-24 10:50:00,86.2,75.3,30.14,SE,136,4.0,13.0,70,0.00,,,0.05,Wunderground v.1.15,2013-06-24 14:50:00,
2013-06-24 10:53:00,86.8,75.4,30.14,ESE,110,5.0,13.0,69,0.00,,,0.05,Wunderground v.1.15,2013-06-24 14:53:00,
2013-06-24 10:55:00,87.0,74.7,30.14,East,97,5.0,15.0,67,0.00,,,0.05,Wunderground v.1.15,2013-06-24 14:55:00,
2013-06-24 10:58:00,87.0,74.3,30.14,SE,124,6.0,15.0,66,0.00,,,0.05,Wunderground v.1.15,2013-06-24 14:58:00,
2013-06-24 10:59:00,87.0,74.3,30.14,SSE,158,6.0,15.0,66,0.00,,,0.05,Wunderground v.1.15,2013-06-24 14:59:00,
2013-06-24 11:01:00,87.3,75.4,30.14,ESE,113,6.0,6.0,68,0.00,,,0.05,Wunderground v.1.15,2013-06-24 15:01:00,
2013-06-24 11:04:00,87.6,75.7,30.14,SE,143,6.0,7.0,68,0.00,,,0.05,Wunderground v.1.15,2013-06-24 15:04:00,
2013-06-24 11:08:00,87.5,74.7,30.14,East,86,5.0,7.0,66,0.00,,,0.05,Wunderground v.1.15,2013-06-24 15:08:00,
2013-06-24 11:09:00,87.5,74.7,30.14,NE,39,5.0,7.0,66,0.00,,,0.05,Wunderground v.1.15,2013-06-24 15:09:00,
2013-06-24 11:12:00,87.5,74.7,30.14,SE,141,5.0,7.0,66,0.00,,,0.05,Wunderground v.1.15,2013-06-24 15:12:00,
2013-06-24 11:15:00,87.5,75.2,30.14,SE,142,5.0,9.0,67,0.00,,,0.05,Wunderground v.1.15,2013-06-24 15:15:00,
2013-06-24 11:17:00,87.9,75.1,30.14,East,83,5.0,9.0,66,0.00,,,0.05,Wunderground v.1.15,2013-06-24 15:17:00,
2013-06-24 11:21:00,88.0,74.3,30.14,NE,56,6.0,9.0,64,0.00,,,0.05,Wunderground v.1.15,2013-06-24 15:21:00,
2013-06-24 11:22:00,88.0,74.3,30.14,NE,44,6.0,9.0,64,0.00,,,0.05,Wunderground v.1.15,2013-06-24 15:22:00,
2013-06-24 11:23:00,87.9,74.7,30.14,ESE,122,6.0,9.0,65,0.00,,,0.05,Wunderground v.1.15,2013-06-24 15:23:00,
2013-06-24 11:24:00,87.9,74.7,30.14,ESE,122,6.0,9.0,65,0.00,,,0.05,Wunderground v.1.15,2013-06-24 15:24:00,
2013-06-24 11:29:00,87.8,74.1,30.14,East,100,6.0,9.0,64,0.00,,,0.05,Wunderground v.1.15,2013-06-24 15:29:00,
2013-06-24 11:30:00,87.9,74.2,30.14,SSE,153,6.0,6.0,64,0.00,,,0.05,Wunderground v.1.15,2013-06-24 15:30:00,
2013-06-24 11:31:00,88.0,74.3,30.15,South,176,6.0,9.0,64,0.00,,,0.05,Wunderground v.1.15,2013-06-24 15:31:00,
2013-06-24 11:35:00,88.1,74.8,30.14,SE,126,5.0,12.0,65,0.00,,,0.05,Wunderground v.1.15,2013-06-24 15:35:00,
2013-06-24 11:36:00,88.3,75.0,30.15,SE,137,5.0,12.0,65,0.00,,,0.05,Wunderground v.1.15,2013-06-24 15:36:00,
2013-06-24 11:40:00,88.4,74.7,30.15,SE,125,6.0,6.0,64,0.00,,,0.05,Wunderground v.1.15,2013-06-24 15:40:00,
2013-06-24 11:43:00,88.6,74.9,30.14,SSE,157,6.0,12.0,64,0.00,,,0.05,Wunderground v.1.15,2013-06-24 15:43:00,
2013-06-24 11:46:00,88.5,74.8,30.14,East,84,6.0,12.0,64,0.00,,,0.05,Wunderground v.1.15,2013-06-24 15:46:00,
2013-06-24 11:49:00,88.4,73.7,30.14,NE,45,6.0,12.0,62,0.00,,,0.05,Wunderground v.1.15,2013-06-24 15:49:00,
2013-06-24 11:51:00,88.8,73.6,30.14,ENE,75,5.0,12.0,61,0.00,,,0.05,Wunderground v.1.15,2013-06-24 15:51:00,
2013-06-24 11:52:00,88.9,73.7,30.14,East,94,5.0,12.0,61,0.00,,,0.05,Wunderground v.1.15,2013-06-24 15:52:00,
2013-06-24 11:55:00,88.9,73.7,30.14,ESE,115,5.0,12.0,61,0.00,,,0.05,Wunderground v.1.15,2013-06-24 15:55:00,
2013-06-24 11:58:00,88.6,72.4,30.14,ESE,102,6.0,12.0,59,0.00,,,0.05,Wunderground v.1.15,2013-06-24 15:58:00,
2013-06-24 12:00:00,88.4,73.2,30.14,SE,131,7.0,7.0,61,0.00,,,0.05,Wunderground v.1.15,2013-06-24 16:00:00,
2013-06-24 12:01:00,88.4,73.2,30.14,ENE,58,7.0,7.0,61,0.00,,,0.05,Wunderground v.1.15,2013-06-24 16:01:00,
2013-06-24 12:04:00,88.5,73.3,30.14,SE,145,7.0,7.0,61,0.00,,,0.05,Wunderground v.1.15,2013-06-24 16:04:00,
2013-06-24 12:05:00,88.6,73.9,30.14,SE,146,7.0,7.0,62,0.00,,,0.05,Wunderground v.1.15,2013-06-24 16:05:00,
2013-06-24 12:08:00,88.8,73.1,30.14,South,189,5.0,7.0,60,0.00,,,0.05,Wunderground v.1.15,2013-06-24 16:08:00,
2013-06-24 12:09:00,88.9,73.7,30.14,SSE,147,5.0,7.0,61,0.00,,,0.05,Wunderground v.1.15,2013-06-24 16:09:00,
2013-06-24 12:10:00,89.0,73.8,30.14,ESE,115,5.0,5.0,61,0.00,,,0.05,Wunderground v.1.15,2013-06-24 16:10:00,
2013-06-24 12:13:00,89.0,72.8,30.14,East,87,5.0,7.0,59,0.00,,,0.05,Wunderground v.1.15,2013-06-24 16:13:00,
2013-06-24 12:14:00,88.9,73.2,30.14,ENE,67,5.0,7.0,60,0.00,,,0.05,Wunderground v.1.15,2013-06-24 16:14:00,
2013-06-24 12:16:00,89.0,73.8,30.14,ESE,107,5.0,7.0,61,0.00,,,0.05,Wunderground v.1.15,2013-06-24 16:16:00,
2013-06-24 12:20:00,89.3,74.6,30.14,East,98,6.0,8.0,62,0.00,,,0.05,Wunderground v.1.15,2013-06-24 16:20:00,
2013-06-24 12:21:00,89.5,74.3,30.14,ESE,123,6.0,8.0,61,0.00,,,0.05,Wunderground v.1.15,2013-06-24 16:21:00,
2013-06-24 12:22:00,89.5,74.3,30.14,ENE,65,5.0,8.0,61,0.00,,,0.05,Wunderground v.1.15,2013-06-24 16:22:00,
2013-06-24 12:27:00,89.1,73.9,30.13,East,98,6.0,8.0,61,0.00,,,0.05,Wunderground v.1.15,2013-06-24 16:27:00,
2013-06-24 12:29:00,89.3,74.6,30.14,ESE,117,6.0,8.0,62,0.00,,,0.05,Wunderground v.1.15,2013-06-24 16:29:00,
2013-06-24 12:31:00,89.4,74.2,30.14,East,82,6.0,14.0,61,0.00,,,0.05,Wunderground v.1.15,2013-06-24 16:31:00,
2013-06-24 12:32:00,89.4,74.2,30.14,SE,143,6.0,14.0,61,0.00,,,0.05,Wunderground v.1.15,2013-06-24 16:32:00,
2013-06-24 12:35:00,89.5,74.3,30.14,SSE,152,6.0,14.0,61,0.00,,,0.05,Wunderground v.1.15,2013-06-24 16:35:00,
2013-06-24 12:37:00,89.3,74.1,30.14,South,169,6.0,14.0,61,0.00,,,0.05,Wunderground v.1.15,2013-06-24 16:37:00,
2013-06-24 12:38:00,89.2,74.5,30.14,SE,131,6.0,14.0,62,0.00,,,0.05,Wunderground v.1.15,2013-06-24 16:38:00,
2013-06-24 12:41:00,89.1,74.9,30.14,NE,44,6.0,7.0,63,0.00,,,0.05,Wunderground v.1.15,2013-06-24 16:41:00,
2013-06-24 12:43:00,89.4,75.1,30.14,East,82,6.0,14.0,63,0.00,,,0.05,Wunderground v.1.15,2013-06-24 16:43:00,
2013-06-24 12:45:00,89.6,75.3,30.14,ENE,72,5.0,14.0,63,0.00,,,0.05,Wunderground v.1.15,2013-06-24 16:45:00,
2013-06-24 12:47:00,89.3,73.6,30.14,SE,138,5.0,14.0,60,0.00,,,0.05,Wunderground v.1.15,2013-06-24 16:47:00,
2013-06-24 12:50:00,88.7,74.0,30.14,ESE,112,5.0,5.0,62,0.00,,,0.05,Wunderground v.1.15,2013-06-24 16:50:00,
2013-06-24 12:51:00,88.5,73.3,30.14,ENE,65,5.0,6.0,61,0.00,,,0.05,Wunderground v.1.15,2013-06-24 16:51:00,
2013-06-24 12:55:00,88.3,74.1,30.14,East,80,5.0,14.0,63,0.00,,,0.05,Wunderground v.1.15,2013-06-24 16:55:00,
2013-06-24 12:56:00,88.5,73.8,30.14,East,87,5.0,14.0,62,0.00,,,0.05,Wunderground v.1.15,2013-06-24 16:56:00,
2013-06-24 12:58:00,88.9,73.7,30.14,East,100,5.0,14.0,61,0.00,,,0.05,Wunderground v.1.15,2013-06-24 16:58:00,
2013-06-24 13:01:00,89.1,73.9,30.14,East,89,5.0,6.0,61,0.00,,,0.05,Wunderground v.1.15,2013-06-24 17:01:00,
2013-06-24 13:03:00,89.0,73.8,30.14,East,89,5.0,6.0,61,0.00,,,0.05,Wunderground v.1.15,2013-06-24 17:03:00,
2013-06-24 13:06:00,88.8,73.6,30.14,East,95,5.0,6.0,61,0.00,,,0.05,Wunderground v.1.15,2013-06-24 17:06:00,
2013-06-24 13:07:00,88.7,73.5,30.13,SSE,153,5.0,6.0,61,0.00,,,0.05,Wunderground v.1.15,2013-06-24 17:07:00,
2013-06-24 13:08:00,88.6,73.4,30.14,NE,51,5.0,6.0,61,0.00,,,0.05,Wunderground v.1.15,2013-06-24 17:08:00,
2013-06-24 13:12:00,88.3,74.1,30.14,East,98,5.0,5.0,63,0.00,,,0.05,Wunderground v.1.15,2013-06-24 17:12:00,
2013-06-24 13:14:00,88.1,74.4,30.13,East,89,5.0,8.0,64,0.00,,,0.05,Wunderground v.1.15,2013-06-24 17:14:00,
2013-06-24 13:15:00,87.9,73.7,30.14,ESE,108,5.0,9.0,63,0.00,,,0.05,Wunderground v.1.15,2013-06-24 17:15:00,
2013-06-24 13:21:00,87.6,72.5,30.13,East,94,5.0,6.0,61,0.00,,,0.05,Wunderground v.1.15,2013-06-24 17:21:00,
2013-06-24 13:22:00,87.7,72.6,30.13,ENE,70,5.0,11.0,61,0.00,,,0.05,Wunderground v.1.15,2013-06-24 17:22:00,
2013-06-24 13:23:00,87.7,72.6,30.13,ENE,78,5.0,11.0,61,0.00,,,0.05,Wunderground v.1.15,2013-06-24 17:23:00,
2013-06-24 13:27:00,88.0,72.9,30.13,SSE,149,6.0,11.0,61,0.00,,,0.05,Wunderground v.1.15,2013-06-24 17:27:00,
2013-06-24 13:28:00,88.0,73.3,30.13,ESE,120,6.0,11.0,62,0.00,,,0.05,Wunderground v.1.15,2013-06-24 17:28:00,
2013-06-24 13:30:00,88.1,73.9,30.13,East,93,7.0,7.0,63,0.00,,,0.05,Wunderground v.1.15,2013-06-24 17:30:00,
2013-06-24 13:33:00,88.6,74.9,30.13,East,94,7.0,17.0,64,0.00,,,0.05,Wunderground v.1.15,2013-06-24 17:33:00,
2013-06-24 13:34:00,88.9,74.7,30.13,East,82,7.0,17.0,63,0.00,,,0.05,Wunderground v.1.15,2013-06-24 17:34:00,
2013-06-24 13:36:00,89.1,73.9,30.13,ENE,63,6.0,17.0,61,0.00,,,0.05,Wunderground v.1.15,2013-06-24 17:36:00,
2013-06-24 13:40:00,89.0,74.8,30.13,ESE,105,6.0,17.0,63,0.00,,,0.05,Wunderground v.1.15,2013-06-24 17:40:00,
2013-06-24 13:41:00,89.0,75.2,30.13,ESE,113,6.0,17.0,64,0.00,,,0.05,Wunderground v.1.15,2013-06-24 17:41:00,
2013-06-24 13:42:00,89.1,74.4,30.13,SSE,165,6.0,17.0,62,0.00,,,0.05,Wunderground v.1.15,2013-06-24 17:42:00,
2013-06-24 13:43:00,89.1,74.4,30.12,ESE,106,6.0,17.0,62,0.00,,,0.05,Wunderground v.1.15,2013-06-24 17:43:00,
2013-06-24 13:48:00,89.0,74.3,30.12,SE,144,6.0,17.0,62,0.00,,,0.05,Wunderground v.1.15,2013-06-24 17:48:00,
2013-06-24 13:51:00,89.0,73.8,30.12,ENE,67,6.0,17.0,61,0.00,,,0.05,Wunderground v.1.15,2013-06-24 17:51:00,
2013-06-24 13:52:00,89.0,73.3,30.12,ENE,58,6.0,17.0,60,0.00,,,0.05,Wunderground v.1.15,2013-06-24 17:52:00,
2013-06-24 13:55:00,89.0,73.3,30.12,East,96,6.0,17.0,60,0.00,,,0.05,Wunderground v.1.15,2013-06-24 17:55:00,
2013-06-24 13:57:00,88.7,73.5,30.12,East,87,6.0,17.0,61,0.00,,,0.05,Wunderground v.1.15,2013-06-24 17:57:00,
2013-06-24 13:58:00,88.6,73.4,30.12,NE,39,6.0,17.0,61,0.00,,,0.05,Wunderground v.1.15,2013-06-24 17:58:00,
2013-06-24 14:01:00,88.6,74.4,30.12,ESE,113,6.0,6.0,63,0.00,,,0.05,Wunderground v.1.15,2013-06-24 18:01:00,
2013-06-24 14:03:00,88.8,74.6,30.12,SE,138,5.0,6.0,63,0.00,,,0.05,Wunderground v.1.15,2013-06-24 18:03:00,
2013-06-24 14:05:00,88.7,74.5,30.12,ENE,64,5.0,6.0,63,0.00,,,0.05,Wunderground v.1.15,2013-06-24 18:05:00,
2013-06-24 14:07:00,88.5,73.3,30.12,ENE,77,4.0,6.0,61,0.00,,,0.05,Wunderground v.1.15,2013-06-24 18:07:00,
2013-06-24 14:09:00,88.4,73.7,30.12,SE,144,5.0,6.0,62,0.00,,,0.05,Wunderground v.1.15,2013-06-24 18:09:00,
2013-06-24 14:10:00,88.2,73.5,30.12,ENE,66,5.0,7.0,62,0.00,,,0.05,Wunderground v.1.15,2013-06-24 18:10:00,
2013-06-24 14:12:00,88.3,75.0,30.11,ENE,70,5.0,7.0,65,0.00,,,0.05,Wunderground v.1.15,2013-06-24 18:12:00,
2013-06-24 14:15:00,88.6,74.9,30.11,SE,124,5.0,7.0,64,0.00,,,0.05,Wunderground v.1.15,2013-06-24 18:15:00,
2013-06-24 14:17:00,88.7,75.0,30.11,ENE,75,5.0,9.0,64,0.00,,,0.05,Wunderground v.1.15,2013-06-24 18:17:00,
2013-06-24 14:20:00,88.7,74.5,30.11,NE,37,5.0,6.0,63,0.00,,,0.05,Wunderground v.1.15,2013-06-24 18:20:00,
2013-06-24 14:21:00,88.7,75.0,30.11,ENE,66,5.0,7.0,64,0.00,,,0.05,Wunderground v.1.15,2013-06-24 18:21:00,
2013-06-24 14:23:00,88.5,73.3,30.11,ENE,75,5.0,11.0,61,0.00,,,0.05,Wunderground v.1.15,2013-06-24 18:23:00,
2013-06-24 14:27:00,88.4,74.2,30.11,ENE,69,5.0,11.0,63,0.00,,,0.05,Wunderground v.1.15,2013-06-24 18:27:00,
2013-06-24 14:28:00,88.3,74.1,30.11,ENE,58,5.0,11.0,63,0.00,,,0.05,Wunderground v.1.15,2013-06-24 18:28:00,
2013-06-24 14:32:00,88.1,74.8,30.11,ESE,108,6.0,13.0,65,0.00,,,0.05,Wunderground v.1.15,2013-06-24 18:32:00,
2013-06-24 14:34:00,88.2,74.9,30.11,ESE,113,5.0,13.0,65,0.00,,,0.05,Wunderground v.1.15,2013-06-24 18:34:00,
2013-06-24 14:39:00,87.9,73.7,30.11,East,81,5.0,13.0,63,0.00,,,0.05,Wunderground v.1.15,2013-06-24 18:39:00,
2013-06-24 14:40:00,87.9,74.2,30.11,ENE,72,5.0,13.0,64,0.00,,,0.05,Wunderground v.1.15,2013-06-24 18:40:00,
2013-06-24 14:44:00,88.1,73.9,30.11,SSE,152,5.0,13.0,63,0.00,,,0.05,Wunderground v.1.15,2013-06-24 18:44:00,
2013-06-24 14:45:00,88.1,74.4,30.11,East,88,5.0,13.0,64,0.00,,,0.05,Wunderground v.1.15,2013-06-24 18:45:00,
2013-06-24 14:47:00,87.9,74.2,30.11,East,96,5.0,13.0,64,0.00,,,0.05,Wunderground v.1.15,2013-06-24 18:47:00,
2013-06-24 14:48:00,87.9,74.2,30.11,East,79,5.0,13.0,64,0.00,,,0.05,Wunderground v.1.15,2013-06-24 18:48:00,
2013-06-24 14:51:00,87.8,74.1,30.11,SE,124,5.0,13.0,64,0.00,,,0.05,Wunderground v.1.15,2013-06-24 18:51:00,
2013-06-24 14:54:00,87.7,74.0,30.11,ESE,107,5.0,13.0,64,0.00,,,0.05,Wunderground v.1.15,2013-06-24 18:54:00,
2013-06-24 14:56:00,87.6,73.9,30.11,West,274,5.0,13.0,64,0.00,,,0.05,Wunderground v.1.15,2013-06-24 18:56:00,
2013-06-24 14:58:00,87.5,73.3,30.11,ENE,75,5.0,13.0,63,0.00,,,0.05,Wunderground v.1.15,2013-06-24 18:58:00,
2013-06-24 15:00:00,87.4,74.2,30.11,ENE,76,5.0,5.0,65,0.00,,,0.05,Wunderground v.1.15,2013-06-24 19:00:00,
2013-06-24 15:02:00,87.4,73.7,30.11,East,86,5.0,6.0,64,0.00,,,0.05,Wunderground v.1.15,2013-06-24 19:02:00,
2013-06-24 15:05:00,87.3,73.2,30.10,South,174,5.0,8.0,63,0.00,,,0.05,Wunderground v.1.15,2013-06-24 19:05:00,
2013-06-24 15:06:00,87.2,73.5,30.10,ESE,116,6.0,8.0,64,0.00,,,0.05,Wunderground v.1.15,2013-06-24 19:06:00,
2013-06-24 15:08:00,87.3,73.2,30.10,ESE,115,5.0,8.0,63,0.00,,,0.05,Wunderground v.1.15,2013-06-24 19:08:00,
2013-06-24 15:10:00,87.4,73.7,30.10,ESE,120,5.0,5.0,64,0.00,,,0.05,Wunderground v.1.15,2013-06-24 19:10:00,
2013-06-24 15:15:00,88.3,73.6,30.10,SSE,155,5.0,9.0,62,0.00,,,0.05,Wunderground v.1.15,2013-06-24 19:15:00,
2013-06-24 15:16:00,88.3,73.6,30.10,ESE,116,5.0,9.0,62,0.00,,,0.05,Wunderground v.1.15,2013-06-24 19:16:00,
2013-06-24 15:18:00,88.7,74.0,30.10,ESE,122,5.0,9.0,62,0.00,,,0.05,Wunderground v.1.15,2013-06-24 19:18:00,
2013-06-24 15:21:00,88.8,74.1,30.10,ESE,123,6.0,6.0,62,0.00,,,0.05,Wunderground v.1.15,2013-06-24 19:21:00,
2013-06-24 15:22:00,88.7,73.5,30.10,East,89,6.0,6.0,61,0.00,,,0.05,Wunderground v.1.15,2013-06-24 19:22:00,
2013-06-24 15:23:00,88.7,73.5,30.10,ESE,120,5.0,6.0,61,0.00,,,0.05,Wunderground v.1.15,2013-06-24 19:23:00,
2013-06-24 15:24:00,88.8,73.6,30.10,South,175,5.0,6.0,61,0.00,,,0.05,Wunderground v.1.15,2013-06-24 19:24:00,
2013-06-24 15:29:00,89.2,73.5,30.10,ESE,104,6.0,10.0,60,0.00,,,0.05,Wunderground v.1.15,2013-06-24 19:29:00,
2013-06-24 15:30:00,89.1,73.9,30.10,ENE,69,6.0,6.0,61,0.00,,,0.05,Wunderground v.1.15,2013-06-24 19:30:00,
2013-06-24 15:33:00,88.5,72.8,30.09,SE,136,6.0,14.0,60,0.00,,,0.05,Wunderground v.1.15,2013-06-24 19:33:00,
2013-06-24 15:37:00,88.4,72.7,30.09,ENE,65,6.0,14.0,60,0.00,,,0.05,Wunderground v.1.15,2013-06-24 19:37:00,
2013-06-24 15:39:00,88.6,72.9,30.09,ENE,77,6.0,14.0,60,0.00,,,0.05,Wunderground v.1.15,2013-06-24 19:39:00,
2013-06-24 15:41:00,88.6,72.9,30.09,SE,134,6.0,14.0,60,0.00,,,0.05,Wunderground v.1.15,2013-06-24 19:41:00,
2013-06-24 15:42:00,88.6,73.4,30.09,NE,50,6.0,14.0,61,0.00,,,0.05,Wunderground v.1.15,2013-06-24 19:42:00,
2013-06-24 15:43:00,88.7,73.5,30.09,East,101,6.0,14.0,61,0.00,,,0.05,Wunderground v.1.15,2013-06-24 19:43:00,
2013-06-24 15:45:00,88.8,74.1,30.09,SE,140,5.0,14.0,62,0.00,,,0.05,Wunderground v.1.15,2013-06-24 19:45:00,
2013-06-24 15:47:00,88.6,73.9,30.09,ESE,103,5.0,14.0,62,0.00,,,0.05,Wunderground v.1.15,2013-06-24 19:47:00,
2013-06-24 15:48:00,88.6,74.4,30.09,East,98,5.0,14.0,63,0.00,,,0.05,Wunderground v.1.15,2013-06-24 19:48:00,
2013-06-24 15:51:00,88.6,73.9,30.09,East,86,5.0,14.0,62,0.00,,,0.05,Wunderground v.1.15,2013-06-24 19:51:00,
2013-06-24 15:52:00,88.6,73.9,30.09,ESE,106,5.0,14.0,62,0.00,,,0.05,Wunderground v.1.15,2013-06-24 19:52:00,
2013-06-24 15:53:00,88.6,73.9,30.09,NE,51,5.0,14.0,62,0.00,,,0.05,Wunderground v.1.15,2013-06-24 19:53:00,
2013-06-24 15:58:00,89.0,73.8,30.09,ENE,58,5.0,14.0,61,0.00,,,0.05,Wunderground v.1.15,2013-06-24 19:58:00,
2013-06-24 16:00:00,89.0,73.8,30.09,SE,138,5.0,6.0,61,0.00,,,0.05,Wunderground v.1.15,2013-06-24 20:00:00,
2013-06-24 16:05:00,89.0,73.3,30.09,ENE,72,5.0,8.0,60,0.00,,,0.05,Wunderground v.1.15,2013-06-24 20:05:00,
2013-06-24 16:09:00,89.0,73.3,30.09,ENE,66,6.0,8.0,60,0.00,,,0.05,Wunderground v.1.15,2013-06-24 20:09:00,
2013-06-24 16:11:00,89.0,72.8,30.09,ENE,66,5.0,6.0,59,0.00,,,0.05,Wunderground v.1.15,2013-06-24 20:11:00,
2013-06-24 16:12:00,89.0,72.3,30.08,ESE,109,5.0,6.0,58,0.00,,,0.05,Wunderground v.1.15,2013-06-24 20:12:00,
2013-06-24 16:13:00,89.1,72.4,30.08,ESE,105,5.0,7.0,58,0.00,,,0.05,Wunderground v.1.15,2013-06-24 20:13:00,
2013-06-24 16:16:00,89.2,72.5,30.08,SSE,167,5.0,11.0,58,0.00,,,0.05,Wunderground v.1.15,2013-06-24 20:16:00,
2013-06-24 16:18:00,89.2,72.5,30.08,NE,54,5.0,11.0,58,0.00,,,0.05,Wunderground v.1.15,2013-06-24 20:18:00,
2013-06-24 16:19:00,89.1,72.4,30.08,ESE,115,5.0,11.0,58,0.00,,,0.05,Wunderground v.1.15,2013-06-24 20:19:00,
2013-06-24 16:20:00,89.0,72.8,30.08,ENE,63,6.0,10.0,59,0.00,,,0.05,Wunderground v.1.15,2013-06-24 20:20:00,
2013-06-24 16:24:00,89.1,73.4,30.08,ENE,77,6.0,10.0,60,0.00,,,0.05,Wunderground v.1.15,2013-06-24 20:24:00,
2013-06-24 16:26:00,89.1,73.4,30.08,NE,52,6.0,10.0,60,0.00,,,0.05,Wunderground v.1.15,2013-06-24 20:26:00,
2013-06-24 16:28:00,89.0,73.3,30.08,SSE,160,6.0,10.0,60,0.00,,,0.05,Wunderground v.1.15,2013-06-24 20:28:00,
2013-06-24 16:29:00,88.9,72.7,30.08,ESE,116,6.0,10.0,59,0.00,,,0.05,Wunderground v.1.15,2013-06-24 20:29:00,
2013-06-24 16:35:00,88.9,73.7,30.07,East,91,6.0,13.0,61,0.00,,,0.05,Wunderground v.1.15,2013-06-24 20:35:00,
2013-06-24 16:36:00,88.8,73.6,30.07,East,98,6.0,13.0,61,0.00,,,0.05,Wunderground v.1.15,2013-06-24 20:36:00,
2013-06-24 16:37:00,88.8,73.6,30.07,SSE,148,6.0,13.0,61,0.00,,,0.05,Wunderground v.1.15,2013-06-24 20:37:00,
2013-06-24 16:39:00,88.8,73.6,30.08,SE,133,5.0,13.0,61,0.00,,,0.05,Wunderground v.1.15,2013-06-24 20:39:00,
2013-06-24 16:42:00,88.9,73.7,30.07,SE,142,5.0,13.0,61,0.00,,,0.05,Wunderground v.1.15,2013-06-24 20:42:00,
2013-06-24 16:43:00,88.9,73.2,30.07,SE,129,5.0,13.0,60,0.00,,,0.05,Wunderground v.1.15,2013-06-24 20:43:00,
2013-06-24 16:45:00,89.0,73.8,30.07,East,92,5.0,13.0,61,0.00,,,0.05,Wunderground v.1.15,2013-06-24 20:45:00,
2013-06-24 16:49:00,88.7,73.5,30.07,East,93,6.0,13.0,61,0.00,,,0.05,Wunderground v.1.15,2013-06-24 20:49:00,
2013-06-24 16:52:00,88.7,74.0,30.07,ENE,68,6.0,13.0,62,0.00,,,0.05,Wunderground v.1.15,2013-06-24 20:52:00,
2013-06-24 16:53:00,88.7,73.5,30.07,SE,131,6.0,13.0,61,0.00,,,0.05,Wunderground v.1.15,2013-06-24 20:53:00,
2013-06-24 16:54:00,88.8,73.6,30.07,ESE,121,6.0,13.0,61,0.00,,,0.05,Wunderground v.1.15,2013-06-24 20:54:00,
2013-06-24 16:55:00,88.8,74.1,30.07,East,83,6.0,13.0,62,0.00,,,0.05,Wunderground v.1.15,2013-06-24 20:55:00,
2013-06-24 16:58:00,88.7,74.0,30.07,ENE,77,6.0,13.0,62,0.00,,,0.05,Wunderground v.1.15,2013-06-24 20:58:00,
2013-06-24 17:00:00,88.5,73.3,30.07,NNE,20,6.0,6.0,61,0.00,,,0.05,Wunderground v.1.15,2013-06-24 21:00:00,
2013-06-24 17:02:00,88.3,73.1,30.07,NE,56,6.0,6.0,61,0.00,,,0.05,Wunderground v.1.15,2013-06-24 21:02:00,
2013-06-24 17:05:00,88.4,73.2,30.07,SE,131,6.0,12.0,61,0.00,,,0.05,Wunderground v.1.15,2013-06-24 21:05:00,
2013-06-24 17:07:00,88.4,73.2,30.07,ENE,58,6.0,12.0,61,0.00,,,0.05,Wunderground v.1.15,2013-06-24 21:07:00,
2013-06-24 17:08:00,88.4,73.2,30.07,ENE,71,6.0,12.0,61,0.00,,,0.05,Wunderground v.1.15,2013-06-24 21:08:00,
2013-06-24 17:09:00,88.4,73.2,30.07,East,81,6.0,12.0,61,0.00,,,0.05,Wunderground v.1.15,2013-06-24 21:09:00,
2013-06-24 17:13:00,88.7,73.5,30.06,ESE,113,5.0,6.0,61,0.00,,,0.05,Wunderground v.1.15,2013-06-24 21:13:00,
2013-06-24 17:14:00,88.8,73.6,30.06,East,83,5.0,8.0,61,0.00,,,0.05,Wunderground v.1.15,2013-06-24 21:14:00,
2013-06-24 17:16:00,88.6,73.4,30.06,South,177,5.0,8.0,61,0.00,,,0.05,Wunderground v.1.15,2013-06-24 21:16:00,
2013-06-24 17:18:00,88.6,73.9,30.06,East,82,5.0,8.0,62,0.00,,,0.05,Wunderground v.1.15,2013-06-24 21:18:00,
2013-06-24 17:20:00,88.5,73.3,30.06,NE,36,5.0,5.0,61,0.00,,,0.05,Wunderground v.1.15,2013-06-24 21:20:00,
2013-06-24 17:21:00,88.5,73.8,30.06,ESE,116,5.0,5.0,62,0.00,,,0.05,Wunderground v.1.15,2013-06-24 21:21:00,
2013-06-24 17:22:00,88.5,73.8,30.06,East,88,5.0,5.0,62,0.00,,,0.05,Wunderground v.1.15,2013-06-24 21:22:00,
2013-06-24 17:26:00,88.8,74.1,30.06,SE,126,5.0,5.0,62,0.00,,,0.05,Wunderground v.1.15,2013-06-24 21:26:00,
2013-06-24 17:28:00,88.6,73.9,30.06,ENE,63,5.0,5.0,62,0.00,,,0.05,Wunderground v.1.15,2013-06-24 21:28:00,
2013-06-24 17:29:00,88.4,73.7,30.07,ENE,75,5.0,6.0,62,0.00,,,0.05,Wunderground v.1.15,2013-06-24 21:29:00,
2013-06-24 17:34:00,88.0,73.8,30.06,East,98,5.0,16.0,63,0.00,,,0.05,Wunderground v.1.15,2013-06-24 21:34:00,
2013-06-24 17:36:00,87.7,73.5,30.06,ENE,70,5.0,16.0,63,0.00,,,0.05,Wunderground v.1.15,2013-06-24 21:36:00,
2013-06-24 17:39:00,87.9,72.8,30.06,ESE,114,5.0,16.0,61,0.00,,,0.05,Wunderground v.1.15,2013-06-24 21:39:00,
2013-06-24 17:41:00,87.9,72.8,30.07,ESE,122,6.0,16.0,61,0.00,,,0.05,Wunderground v.1.15,2013-06-24 21:41:00,
2013-06-24 17:42:00,87.9,72.8,30.07,ENE,63,6.0,16.0,61,0.00,,,0.05,Wunderground v.1.15,2013-06-24 21:42:00,
2013-06-24 17:43:00,87.9,73.3,30.07,ENE,72,6.0,16.0,62,0.00,,,0.05,Wunderground v.1.15,2013-06-24 21:43:00,
2013-06-24 17:47:00,87.7,74.0,30.07,ENE,75,6.0,16.0,64,0.00,,,0.05,Wunderground v.1.15,2013-06-24 21:47:00,
2013-06-24 17:49:00,87.7,73.5,30.07,ENE,67,6.0,16.0,63,0.00,,,0.05,Wunderground v.1.15,2013-06-24 21:49:00,
2013-06-24 17:51:00,87.5,73.8,30.07,ESE,122,6.0,16.0,64,0.00,,,0.05,Wunderground v.1.15,2013-06-24 21:51:00,
2013-06-24 17:52:00,87.6,73.9,30.07,East,101,5.0,16.0,64,0.00,,,0.05,Wunderground v.1.15,2013-06-24 21:52:00,
2013-06-24 17:57:00,87.6,73.9,30.07,SE,138,5.0,16.0,64,0.00,,,0.05,Wunderground v.1.15,2013-06-24 21:57:00,
2013-06-24 17:58:00,87.6,74.4,30.07,ESE,116,5.0,16.0,65,0.00,,,0.05,Wunderground v.1.15,2013-06-24 21:58:00,
2013-06-24 17:59:00,87.6,74.4,30.07,ENE,60,5.0,16.0,65,0.00,,,0.05,Wunderground v.1.15,2013-06-24 21:59:00,
2013-06-24 18:03:00,87.9,73.7,30.07,ENE,64,5.0,6.0,63,0.00,,,0.05,Wunderground v.1.15,2013-06-24 22:03:00,
2013-06-24 18:04:00,87.9,73.3,30.07,East,86,5.0,6.0,62,0.00,,,0.05,Wunderground v.1.15,2013-06-24 22:04:00,
2013-06-24 18:06:00,87.5,72.9,30.07,SE,141,5.0,6.0,62,0.00,,,0.05,Wunderground v.1.15,2013-06-24 22:06:00,
2013-06-24 18:08:00,87.2,73.1,30.07,ENE,70,5.0,6.0,63,0.00,,,0.05,Wunderground v.1.15,2013-06-24 22:08:00,
2013-06-24 18:09:00,87.2,73.5,30.07,SSE,163,5.0,6.0,64,0.00,,,0.05,Wunderground v.1.15,2013-06-24 22:09:00,
2013-06-24 18:11:00,87.2,73.1,30.07,SE,136,5.0,6.0,63,0.00,,,0.05,Wunderground v.1.15,2013-06-24 22:11:00,
2013-06-24 18:13:00,87.4,73.7,30.07,East,89,4.0,6.0,64,0.00,,,0.05,Wunderground v.1.15,2013-06-24 22:13:00,
2013-06-24 18:15:00,87.4,73.7,30.07,NE,56,4.0,6.0,64,0.00,,,0.05,Wunderground v.1.15,2013-06-24 22:15:00,
2013-06-24 18:17:00,87.2,74.5,30.07,East,79,5.0,6.0,66,0.00,,,0.05,Wunderground v.1.15,2013-06-24 22:17:00,
2013-06-24 18:18:00,87.1,73.9,30.07,SSW,208,4.0,6.0,65,0.00,,,0.05,Wunderground v.1.15,2013-06-24 22:18:00,
2013-06-24 18:22:00,87.2,74.5,30.07,East,80,4.0,5.0,66,0.00,,,0.05,Wunderground v.1.15,2013-06-24 22:22:00,
2013-06-24 18:23:00,87.2,74.5,30.07,South,181,4.0,5.0,66,0.00,,,0.05,Wunderground v.1.15,2013-06-24 22:23:00,
2013-06-24 18:24:00,87.4,74.2,30.07,NNE,33,4.0,5.0,65,0.00,,,0.05,Wunderground v.1.15,2013-06-24 22:24:00,
2013-06-24 18:29:00,87.3,74.1,30.07,East,101,4.0,12.0,65,0.00,,,0.05,Wunderground v.1.15,2013-06-24 22:29:00,
2013-06-24 18:31:00,86.8,74.1,30.07,SE,124,4.0,12.0,66,0.00,,,0.05,Wunderground v.1.15,2013-06-24 22:31:00,
2013-06-24 18:32:00,86.6,74.3,30.07,NE,49,4.0,12.0,67,0.00,,,0.05,Wunderground v.1.15,2013-06-24 22:32:00,
2013-06-24 18:37:00,86.1,74.3,30.06,ENE,63,5.0,12.0,68,0.00,,,0.05,Wunderground v.1.15,2013-06-24 22:37:00,
2013-06-24 18:38:00,86.1,73.9,30.06,East,92,5.0,12.0,67,0.00,,,0.05,Wunderground v.1.15,2013-06-24 22:38:00,
2013-06-24 18:39:00,86.1,73.9,30.06,ENE,77,5.0,12.0,67,0.00,,,0.05,Wunderground v.1.15,2013-06-24 22:39:00,
2013-06-24 18:40:00,86.0,73.8,30.06,East,91,5.0,12.0,67,0.00,,,0.05,Wunderground v.1.15,2013-06-24 22:40:00,
2013-06-24 18:45:00,85.7,74.4,30.07,SE,132,5.0,12.0,69,0.00,,,0.05,Wunderground v.1.15,2013-06-24 22:45:00,
2013-06-24 18:46:00,85.6,74.3,30.07,East,98,5.0,12.0,69,0.00,,,0.05,Wunderground v.1.15,2013-06-24 22:46:00,
2013-06-24 18:47:00,85.6,74.3,30.06,East,88,5.0,12.0,69,0.00,,,0.05,Wunderground v.1.15,2013-06-24 22:47:00,
2013-06-24 18:48:00,85.6,74.3,30.06,ENE,71,4.0,12.0,69,0.00,,,0.05,Wunderground v.1.15,2013-06-24 22:48:00,
2013-06-24 18:52:00,85.8,74.0,30.06,NNE,31,4.0,12.0,68,0.00,,,0.05,Wunderground v.1.15,2013-06-24 22:52:00,
2013-06-24 18:54:00,86.0,74.2,30.06,ENE,69,4.0,12.0,68,0.00,,,0.05,Wunderground v.1.15,2013-06-24 22:54:00,
2013-06-24 18:56:00,86.1,74.3,30.06,ESE,119,4.0,12.0,68,0.00,,,0.05,Wunderground v.1.15,2013-06-24 22:56:00,
2013-06-24 18:57:00,86.0,73.8,30.06,ENE,61,4.0,12.0,67,0.00,,,0.05,Wunderground v.1.15,2013-06-24 22:57:00,
2013-06-24 18:59:00,85.8,74.0,30.06,SE,135,4.0,12.0,68,0.00,,,0.05,Wunderground v.1.15,2013-06-24 22:59:00,
2013-06-24 19:01:00,85.8,74.4,30.06,ESE,113,4.0,4.0,69,0.00,,,0.05,Wunderground v.1.15,2013-06-24 23:01:00,
2013-06-24 19:03:00,85.9,74.5,30.06,SE,136,4.0,4.0,69,0.00,,,0.05,Wunderground v.1.15,2013-06-24 23:03:00,
2013-06-24 19:05:00,85.7,74.4,30.06,ENE,67,4.0,4.0,69,0.00,,,0.05,Wunderground v.1.15,2013-06-24 23:05:00,
2013-06-24 19:08:00,85.4,73.6,30.06,ENE,76,4.0,8.0,68,0.00,,,0.05,Wunderground v.1.15,2013-06-24 23:08:00,
2013-06-24 19:11:00,84.9,73.6,30.06,ESE,116,4.0,4.0,69,0.00,,,0.05,Wunderground v.1.15,2013-06-24 23:11:00,
2013-06-24 19:13:00,84.9,74.0,30.06,ENE,68,5.0,5.0,70,0.00,,,0.05,Wunderground v.1.15,2013-06-24 23:13:00,
2013-06-24 19:14:00,84.9,74.0,30.06,ENE,58,5.0,5.0,70,0.00,,,0.05,Wunderground v.1.15,2013-06-24 23:14:00,
2013-06-24 19:19:00,85.3,73.5,30.06,SE,133,3.0,5.0,68,0.00,,,0.05,Wunderground v.1.15,2013-06-24 23:19:00,
2013-06-24 19:20:00,85.4,73.6,30.06,SE,136,3.0,3.0,68,0.00,,,0.05,Wunderground v.1.15,2013-06-24 23:20:00,
2013-06-24 19:23:00,85.5,73.7,30.07,SE,134,3.0,8.0,68,0.00,,,0.05,Wunderground v.1.15,2013-06-24 23:23:00,
2013-06-24 19:25:00,85.5,73.7,30.07,East,101,3.0,8.0,68,0.00,,,0.05,Wunderground v.1.15,2013-06-24 23:25:00,
2013-06-24 19:27:00,85.4,74.1,30.07,East,81,3.0,8.0,69,0.00,,,0.05,Wunderground v.1.15,2013-06-24 23:27:00,
2013-06-24 19:30:00,85.2,73.4,30.07,ENE,63,4.0,4.0,68,0.00,,,0.05,Wunderground v.1.15,2013-06-24 23:30:00,
2013-06-24 19:31:00,85.1,73.3,30.07,ENE,63,4.0,5.0,68,0.00,,,0.05,Wunderground v.1.15,2013-06-24 23:31:00,
2013-06-24 19:32:00,85.0,73.7,30.07,East,82,4.0,6.0,69,0.00,,,0.05,Wunderground v.1.15,2013-06-24 23:32:00,
2013-06-24 19:35:00,84.9,74.0,30.07,ENE,70,4.0,12.0,70,0.00,,,0.05,Wunderground v.1.15,2013-06-24 23:35:00,
2013-06-24 19:36:00,84.9,74.0,30.07,East,101,4.0,12.0,70,0.00,,,0.05,Wunderground v.1.15,2013-06-24 23:36:00,
2013-06-24 19:38:00,85.0,74.1,30.07,ESE,122,4.0,12.0,70,0.00,,,0.05,Wunderground v.1.15,2013-06-24 23:38:00,
2013-06-24 19:41:00,85.1,74.2,30.07,ENE,63,4.0,12.0,70,0.00,,,0.05,Wunderground v.1.15,2013-06-24 23:41:00,
2013-06-24 19:42:00,85.1,74.2,30.07,ENE,71,4.0,12.0,70,0.00,,,0.05,Wunderground v.1.15,2013-06-24 23:42:00,
2013-06-24 19:44:00,84.9,73.6,30.07,ESE,106,4.0,12.0,69,0.00,,,0.05,Wunderground v.1.15,2013-06-24 23:44:00,
2013-06-24 19:46:00,84.7,73.8,30.07,ESE,108,3.0,12.0,70,0.00,,,0.05,Wunderground v.1.15,2013-06-24 23:46:00,
2013-06-24 19:48:00,84.7,73.8,30.07,ESE,120,3.0,12.0,70,0.00,,,0.05,Wunderground v.1.15,2013-06-24 23:48:00,
2013-06-24 19:51:00,84.4,73.5,30.07,SE,124,3.0,12.0,70,0.00,,,0.05,Wunderground v.1.15,2013-06-24 23:51:00,
2013-06-24 19:52:00,84.4,74.0,30.07,ENE,65,3.0,12.0,71,0.00,,,0.05,Wunderground v.1.15,2013-06-24 23:52:00,
2013-06-24 19:54:00,84.3,73.9,30.07,East,94,3.0,12.0,71,0.00,,,0.05,Wunderground v.1.15,2013-06-24 23:54:00,
2013-06-24 19:55:00,84.1,73.7,30.07,ESE,115,3.0,12.0,71,0.00,,,0.05,Wunderground v.1.15,2013-06-24 23:55:00,
2013-06-24 19:57:00,84.0,73.6,30.07,ESE,114,3.0,12.0,71,0.00,,,0.05,Wunderground v.1.15,2013-06-24 23:57:00,
2013-06-24 20:00:00,83.8,73.4,30.07,ESE,112,3.0,3.0,71,0.00,,,0.05,Wunderground v.1.15,2013-06-25 00:00:00,
2013-06-24 20:01:00,83.8,73.8,30.07,North,5,3.0,5.0,72,0.00,,,0.05,Wunderground v.1.15,2013-06-25 00:01:00,
2013-06-24 20:04:00,83.6,73.2,30.07,SE,135,3.0,5.0,71,0.00,,,0.05,Wunderground v.1.15,2013-06-25 00:04:00,
2013-06-24 20:05:00,83.5,73.1,30.07,East,95,3.0,5.0,71,0.00,,,0.05,Wunderground v.1.15,2013-06-25 00:05:00,
2013-06-24 20:06:00,83.5,73.5,30.07,East,84,3.0,5.0,72,0.00,,,0.05,Wunderground v.1.15,2013-06-25 00:06:00,
2013-06-24 20:11:00,83.3,73.7,30.07,ENE,73,3.0,3.0,73,0.00,,,0.05,Wunderground v.1.15,2013-06-25 00:11:00,
2013-06-24 20:12:00,83.3,73.7,30.07,ESE,121,3.0,3.0,73,0.00,,,0.05,Wunderground v.1.15,2013-06-25 00:12:00,
2013-06-24 20:14:00,83.2,73.6,30.07,SSE,166,3.0,3.0,73,0.00,,,0.05,Wunderground v.1.15,2013-06-25 00:14:00,
2013-06-24 20:17:00,83.1,73.9,30.07,ENE,73,3.0,4.0,74,0.00,,,0.05,Wunderground v.1.15,2013-06-25 00:17:00,
2013-06-24 20:19:00,83.0,73.9,30.07,East,93,3.0,4.0,74,0.00,,,0.05,Wunderground v.1.15,2013-06-25 00:19:00,
2013-06-24 20:21:00,83.0,73.9,30.07,ENE,63,2.0,3.0,74,0.00,,,0.05,Wunderground v.1.15,2013-06-25 00:21:00,
2013-06-24 20:22:00,82.9,73.8,30.07,SSE,157,2.0,3.0,74,0.00,,,0.05,Wunderground v.1.15,2013-06-25 00:22:00,
2013-06-24 20:24:00,82.9,73.8,30.07,East,82,2.0,3.0,74,0.00,,,0.05,Wunderground v.1.15,2013-06-25 00:24:00,
2013-06-24 20:28:00,82.8,73.7,30.07,East,99,2.0,3.0,74,0.00,,,0.05,Wunderground v.1.15,2013-06-25 00:28:00,
2013-06-24 20:30:00,82.8,74.1,30.07,ENE,77,2.0,2.0,75,0.00,,,0.05,Wunderground v.1.15,2013-06-25 00:30:00,
2013-06-24 20:35:00,82.7,74.0,30.07,ESE,110,2.0,12.0,75,0.00,,,0.05,Wunderground v.1.15,2013-06-25 00:35:00,
2013-06-24 20:36:00,82.7,74.0,30.07,East,85,3.0,12.0,75,0.00,,,0.05,Wunderground v.1.15,2013-06-25 00:36:00,
2013-06-24 20:37:00,82.6,73.9,30.07,East,98,3.0,12.0,75,0.00,,,0.05,Wunderground v.1.15,2013-06-25 00:37:00,
2013-06-24 20:42:00,82.5,74.2,30.07,East,79,3.0,12.0,76,0.00,,,0.05,Wunderground v.1.15,2013-06-25 00:42:00,
2013-06-24 20:43:00,82.6,74.3,30.07,ENE,75,3.0,12.0,76,0.00,,,0.05,Wunderground v.1.15,2013-06-25 00:43:00,
2013-06-24 20:45:00,82.6,74.3,30.07,East,101,3.0,12.0,76,0.00,,,0.05,Wunderground v.1.15,2013-06-25 00:45:00,
2013-06-24 20:47:00,82.5,74.2,30.07,ENE,75,2.0,12.0,76,0.00,,,0.05,Wunderground v.1.15,2013-06-25 00:47:00,
2013-06-24 20:50:00,82.5,74.2,30.07,ENE,70,2.0,12.0,76,0.00,,,0.05,Wunderground v.1.15,2013-06-25 00:50:00,
2013-06-24 20:52:00,82.5,74.2,30.07,SE,124,2.0,12.0,76,0.00,,,0.05,Wunderground v.1.15,2013-06-25 00:52:00,
2013-06-24 20:56:00,82.5,74.6,30.07,East,89,2.0,12.0,77,0.00,,,0.05,Wunderground v.1.15,2013-06-25 00:56:00,
2013-06-24 20:57:00,82.5,74.6,30.07,East,101,2.0,12.0,77,0.00,,,0.05,Wunderground v.1.15,2013-06-25 00:57:00,
2013-06-24 21:00:00,82.5,74.6,30.07,ESE,103,2.0,2.0,77,0.00,,,0.05,Wunderground v.1.15,2013-06-25 01:00:00,
2013-06-24 21:02:00,82.4,74.5,30.07,East,84,2.0,2.0,77,0.00,,,0.05,Wunderground v.1.15,2013-06-25 01:02:00,
2013-06-24 21:04:00,82.4,74.1,30.07,East,88,2.0,4.0,76,0.00,,,0.05,Wunderground v.1.15,2013-06-25 01:04:00,
2013-06-24 21:05:00,82.4,74.1,30.07,East,86,2.0,4.0,76,0.00,,,0.05,Wunderground v.1.15,2013-06-25 01:05:00,
2013-06-24 21:10:00,82.4,74.1,30.07,ENE,59,3.0,5.0,76,0.00,,,0.05,Wunderground v.1.15,2013-06-25 01:10:00,
2013-06-24 21:11:00,82.4,73.7,30.07,East,83,3.0,5.0,75,0.00,,,0.05,Wunderground v.1.15,2013-06-25 01:11:00,
2013-06-24 21:16:00,82.4,73.7,30.07,SE,143,3.0,5.0,75,0.00,,,0.05,Wunderground v.1.15,2013-06-25 01:16:00,
2013-06-24 21:17:00,82.3,73.6,30.07,ENE,59,3.0,5.0,75,0.00,,,0.05,Wunderground v.1.15,2013-06-25 01:17:00,
2013-06-24 21:18:00,82.3,73.6,30.08,SE,141,3.0,5.0,75,0.00,,,0.05,Wunderground v.1.15,2013-06-25 01:18:00,
2013-06-24 21:19:00,82.3,73.6,30.08,East,79,3.0,5.0,75,0.00,,,0.05,Wunderground v.1.15,2013-06-25 01:19:00,
2013-06-24 21:23:00,82.2,73.5,30.08,SE,134,3.0,4.0,75,0.00,,,0.05,Wunderground v.1.15,2013-06-25 01:23:00,
2013-06-24 21:24:00,82.2,73.5,30.08,SE,132,2.0,4.0,75,0.00,,,0.05,Wunderground v.1.15,2013-06-25 01:24:00,
2013-06-24 21:26:00,82.2,73.9,30.08,ENE,75,2.0,4.0,76,0.00,,,0.05,Wunderground v.1.15,2013-06-25 01:26:00,
2013-06-24 21:29:00,82.3,74.4,30.08,ESE,110,2.0,4.0,77,0.00,,,0.05,Wunderground v.1.15,2013-06-25 01:29:00,
2013-06-24 21:30:00,82.3,74.4,30.08,SSE,152,2.0,5.0,77,0.00,,,0.05,Wunderground v.1.15,2013-06-25 01:30:00,
2013-06-24 21:34:00,81.7,74.5,30.08,ENE,65,3.0,7.0,79,0.00,,,0.05,Wunderground v.1.15,2013-06-25 01:34:00,
2013-06-24 21:35:00,81.5,74.7,30.08,SE,143,3.0,7.0,80,0.00,,,0.05,Wunderground v.1.15,2013-06-25 01:35:00,
2013-06-24 21:36:00,81.4,74.6,30.08,ESE,115,3.0,7.0,80,0.00,,,0.05,Wunderground v.1.15,2013-06-25 01:36:00,
2013-06-24 21:38:00,81.2,74.8,30.08,SE,124,3.0,7.0,81,0.00,,,0.05,Wunderground v.1.15,2013-06-25 01:38:00,
2013-06-24 21:41:00,81.1,74.3,30.08,ESE,106,2.0,7.0,80,0.00,,,0.05,Wunderground v.1.15,2013-06-25 01:41:00,
2013-06-24 21:42:00,81.1,74.3,30.08,ENE,73,2.0,7.0,80,0.00,,,0.05,Wunderground v.1.15,2013-06-25 01:42:00,
2013-06-24 21:44:00,81.2,74.1,30.08,ENE,78,2.0,7.0,79,0.00,,,0.05,Wunderground v.1.15,2013-06-25 01:44:00,
2013-06-24 21:47:00,81.4,73.9,30.08,East,79,2.0,7.0,78,0.00,,,0.05,Wunderground v.1.15,2013-06-25 01:47:00,
2013-06-24 21:48:00,81.5,74.0,30.08,SE,124,3.0,7.0,78,0.00,,,0.05,Wunderground v.1.15,2013-06-25 01:48:00,
2013-06-24 21:49:00,81.5,73.6,30.08,SE,129,3.0,7.0,77,0.00,,,0.05,Wunderground v.1.15,2013-06-25 01:49:00,
2013-06-24 21:52:00,81.6,73.7,30.08,SE,141,3.0,7.0,77,0.00,,,0.05,Wunderground v.1.15,2013-06-25 01:52:00,
2013-06-24 21:53:00,81.6,73.7,30.08,ESE,122,3.0,7.0,77,0.00,,,0.05,Wunderground v.1.15,2013-06-25 01:53:00,
2013-06-24 21:55:00,81.7,73.4,30.08,ESE,105,3.0,7.0,76,0.00,,,0.05,Wunderground v.1.15,2013-06-25 01:55:00,
2013-06-24 21:59:00,81.7,73.4,30.08,East,79,2.0,7.0,76,0.00,,,0.05,Wunderground v.1.15,2013-06-25 01:59:00,
2013-06-24 22:00:00,81.7,73.4,30.08,NE,51,2.0,2.0,76,0.00,,,0.05,Wunderground v.1.15,2013-06-25 02:00:00,
2013-06-24 22:01:00,81.7,73.8,30.08,SE,124,2.0,2.0,77,0.00,,,0.05,Wunderground v.1.15,2013-06-25 02:01:00,
2013-06-24 22:02:00,81.7,73.4,30.08,East,82,2.0,3.0,76,0.00,,,0.05,Wunderground v.1.15,2013-06-25 02:02:00,
2013-06-24 22:05:00,81.7,73.8,30.08,ENE,66,2.0,3.0,77,0.00,,,0.05,Wunderground v.1.15,2013-06-25 02:05:00,
2013-06-24 22:06:00,81.7,73.8,30.08,East,86,2.0,3.0,77,0.00,,,0.05,Wunderground v.1.15,2013-06-25 02:06:00,
2013-06-24 22:08:00,81.7,73.8,30.08,SSW,195,2.0,3.0,77,0.00,,,0.05,Wunderground v.1.15,2013-06-25 02:08:00,
2013-06-24 22:11:00,81.7,73.8,30.08,SE,127,2.0,3.0,77,0.00,,,0.05,Wunderground v.1.15,2013-06-25 02:11:00,
2013-06-24 22:14:00,81.8,73.9,30.08,ESE,120,3.0,3.0,77,0.00,,,0.05,Wunderground v.1.15,2013-06-25 02:14:00,
2013-06-24 22:16:00,81.9,73.6,30.08,SSE,152,2.0,5.0,76,0.00,,,0.05,Wunderground v.1.15,2013-06-25 02:16:00,
2013-06-24 22:17:00,81.9,73.6,30.08,ENE,68,3.0,5.0,76,0.00,,,0.05,Wunderground v.1.15,2013-06-25 02:17:00,
2013-06-24 22:19:00,81.8,73.5,30.08,SE,124,3.0,5.0,76,0.00,,,0.05,Wunderground v.1.15,2013-06-25 02:19:00,
2013-06-24 22:21:00,81.9,73.6,30.08,ENE,75,3.0,3.0,76,0.00,,,0.05,Wunderground v.1.15,2013-06-25 02:21:00,
2013-06-24 22:23:00,81.9,73.6,30.08,East,86,3.0,3.0,76,0.00,,,0.05,Wunderground v.1.15,2013-06-25 02:23:00,
2013-06-24 22:26:00,81.8,73.9,30.09,East,86,3.0,4.0,77,0.00,,,0.05,Wunderground v.1.15,2013-06-25 02:26:00,
2013-06-24 22:27:00,81.8,73.9,30.09,East,82,3.0,4.0,77,0.00,,,0.05,Wunderground v.1.15,2013-06-25 02:27:00,
2013-06-24 22:30:00,81.8,73.9,30.09,East,95,3.0,3.0,77,0.00,,,0.05,Wunderground v.1.15,2013-06-25 02:30:00,
2013-06-24 22:32:00,81.8,73.9,30.09,SE,128,2.0,7.0,77,0.00,,,0.05,Wunderground v.1.15,2013-06-25 02:32:00,
2013-06-24 22:35:00,81.8,73.9,30.09,East,101,2.0,7.0,77,0.00,,,0.05,Wunderground v.1.15,2013-06-25 02:35:00,
2013-06-24 22:36:00,81.8,73.9,30.09,ESE,105,2.0,7.0,77,0.00,,,0.05,Wunderground v.1.15,2013-06-25 02:36:00,
2013-06-24 22:39:00,81.7,73.8,30.09,ENE,70,2.0,7.0,77,0.00,,,0.05,Wunderground v.1.15,2013-06-25 02:39:00,
2013-06-24 22:41:00,81.7,73.8,30.09,NE,37,2.0,7.0,77,0.00,,,0.05,Wunderground v.1.15,2013-06-25 02:41:00,
2013-06-24 22:42:00,81.7,73.8,30.09,East,97,2.0,7.0,77,0.00,,,0.05,Wunderground v.1.15,2013-06-25 02:42:00,
2013-06-24 22:45:00,81.6,73.7,30.09,NE,52,2.0,7.0,77,0.00,,,0.05,Wunderground v.1.15,2013-06-25 02:45:00,
2013-06-24 22:47:00,81.6,73.7,30.09,NE,46,2.0,7.0,77,0.00,,,0.05,Wunderground v.1.15,2013-06-25 02:47:00,
2013-06-24 22:53:00,81.5,73.6,30.09,ENE,59,2.0,7.0,77,0.00,,,0.05,Wunderground v.1.15,2013-06-25 02:53:00,
2013-06-24 22:54:00,81.5,73.6,30.09,East,82,2.0,7.0,77,0.00,,,0.05,Wunderground v.1.15,2013-06-25 02:54:00,
2013-06-24 22:56:00,81.4,73.5,30.09,ESE,116,2.0,7.0,77,0.00,,,0.05,Wunderground v.1.15,2013-06-25 02:56:00,
2013-06-24 23:00:00,81.5,73.2,30.10,East,98,2.0,2.0,76,0.00,,,0.05,Wunderground v.1.15,2013-06-25 03:00:00,
2013-06-24 23:02:00,81.5,73.2,30.10,ENE,58,3.0,3.0,76,0.00,,,0.05,Wunderground v.1.15,2013-06-25 03:02:00,
2013-06-24 23:03:00,81.5,73.2,30.10,ESE,103,3.0,4.0,76,0.00,,,0.05,Wunderground v.1.15,2013-06-25 03:03:00,
2013-06-24 23:07:00,81.6,73.3,30.10,ESE,106,2.0,4.0,76,0.00,,,0.05,Wunderground v.1.15,2013-06-25 03:07:00,
2013-06-24 23:08:00,81.5,73.2,30.10,ENE,76,2.0,4.0,76,0.00,,,0.05,Wunderground v.1.15,2013-06-25 03:08:00,
2013-06-24 23:09:00,81.6,73.3,30.10,East,100,2.0,4.0,76,0.00,,,0.05,Wunderground v.1.15,2013-06-25 03:09:00,
2013-06-24 23:10:00,81.6,73.3,30.10,SE,131,2.0,2.0,76,0.00,,,0.05,Wunderground v.1.15,2013-06-25 03:10:00,
2013-06-24 23:13:00,81.6,73.3,30.10,SE,129,2.0,4.0,76,0.00,,,0.05,Wunderground v.1.15,2013-06-25 03:13:00,
2013-06-24 23:15:00,81.6,73.3,30.10,East,82,2.0,4.0,76,0.00,,,0.05,Wunderground v.1.15,2013-06-25 03:15:00,
2013-06-24 23:19:00,81.7,73.4,30.10,ESE,102,2.0,4.0,76,0.00,,,0.05,Wunderground v.1.15,2013-06-25 03:19:00,
2013-06-24 23:20:00,81.7,73.4,30.11,ESE,111,2.0,2.0,76,0.00,,,0.05,Wunderground v.1.15,2013-06-25 03:20:00,
2013-06-24 23:25:00,81.7,73.4,30.11,East,81,2.0,6.0,76,0.00,,,0.05,Wunderground v.1.15,2013-06-25 03:25:00,
2013-06-24 23:26:00,81.7,73.4,30.11,South,184,2.0,6.0,76,0.00,,,0.05,Wunderground v.1.15,2013-06-25 03:26:00,
2013-06-24 23:31:00,81.8,73.5,30.11,SE,127,2.0,8.0,76,0.00,,,0.05,Wunderground v.1.15,2013-06-25 03:31:00,
2013-06-24 23:32:00,81.8,73.9,30.11,ESE,110,2.0,8.0,77,0.00,,,0.05,Wunderground v.1.15,2013-06-25 03:32:00,
2013-06-24 23:33:00,81.7,73.8,30.11,ESE,117,2.0,8.0,77,0.00,,,0.05,Wunderground v.1.15,2013-06-25 03:33:00,
2013-06-24 23:37:00,81.7,73.8,30.11,ENE,76,2.0,8.0,77,0.00,,,0.05,Wunderground v.1.15,2013-06-25 03:37:00,
2013-06-24 23:39:00,81.6,73.7,30.11,ESE,117,1.0,8.0,77,0.00,,,0.05,Wunderground v.1.15,2013-06-25 03:39:00,
2013-06-24 23:40:00,81.6,73.7,30.11,ESE,120,1.0,8.0,77,0.00,,,0.05,Wunderground v.1.15,2013-06-25 03:40:00,
2013-06-24 23:43:00,81.5,73.2,30.11,East,101,2.0,8.0,76,0.00,,,0.05,Wunderground v.1.15,2013-06-25 03:43:00,
2013-06-24 23:44:00,81.5,73.2,30.11,SE,134,2.0,8.0,76,0.00,,,0.05,Wunderground v.1.15,2013-06-25 03:44:00,
2013-06-24 23:47:00,81.5,72.8,30.11,North,359,2.0,8.0,75,0.00,,,0.05,Wunderground v.1.15,2013-06-25 03:47:00,
2013-06-24 23:49:00,81.6,72.9,30.11,ESE,122,2.0,8.0,75,0.00,,,0.05,Wunderground v.1.15,2013-06-25 03:49:00,
2013-06-24 23:51:00,81.6,72.9,30.11,ESE,105,2.0,3.0,75,0.00,,,0.05,Wunderground v.1.15,2013-06-25 03:51:00,
2013-06-24 23:53:00,81.6,72.5,30.11,ENE,60,2.0,8.0,74,0.00,,,0.05,Wunderground v.1.15,2013-06-25 03:53:00,
2013-06-24 23:55:00,81.6,72.5,30.11,ENE,76,2.0,8.0,74,0.00,,,0.05,Wunderground v.1.15,2013-06-25 03:55:00,